Multibeam Report for EX1504L2


Ship Name: Okeanos Explorer
Chief Scientist: Lobecker, Elizabeth
NOAA/OAR/OER
Source Organization: NOAA Office of Ocean Exploration and Research (OER)
Start Date: 2015-07-31
End Date: 2015-08-22


View ISO Metadata

Visit the full NCEI Bathymetry Viewer


Multibeam Bathymetry

Cruise Details

Project: Campaign to Address Pacific monument Science, Technology, and Ocean NEeds (CAPSTONE) NWHI Exploration Leg II
Instrument: Kongsberg EM302

Data Quality

Number of Files: 993
Number of Records: 420368
BATHYMETRY DATA Quantity Percentage
Number of Beams 181598976 100%
Number of Good Beams 166851589 91.88%
Number of Zero Beams 6780341 3.73%
Number of Flagged Beams 7967046 4.39%

Navigation Totals

Total Time: 658.4666 hours
Total Track Length: 12146.8941 km
Average Speed: 18.447 km/hr (9.9606 knots)

Cruise Bounds

Northern Extent: 27.843256
Southern Extent: 20.916409
Western Extent: -176.62732
Eastern Extent: -158.03925

Limits

Minimum Sonar Depth 0 Maximum Sonar Depth 4.9255
Minimum Altitude 0 Maximum Altitude 5693.7207
Minimum Depth 78.5983 Maximum Depth 5901.5366

File Information

Full Resolution Bathymetry as collected (raw): 481

Files File Size Description
0000_20150731_204451_EX1504L2_MB.all.mb58.gz 128.77MB Kongsberg multibeam vendor format
0001_20150731_214451_EX1504L2_MB.all.mb58.gz 72.51MB Kongsberg multibeam vendor format
0002_20150731_224451_EX1504L2_MB.all.mb58.gz 68.19MB Kongsberg multibeam vendor format
0003_20150731_234454_EX1504L2_MB.all.mb58.gz 66.58MB Kongsberg multibeam vendor format
0004_20150801_004456_EX1504L2_MB.all.mb58.gz 66.55MB Kongsberg multibeam vendor format
0005_20150801_014451_EX1504L2_MB.all.mb58.gz 66.56MB Kongsberg multibeam vendor format
0006_20150801_024457_EX1504L2_MB.all.mb58.gz 66.60MB Kongsberg multibeam vendor format
0007_20150801_034459_EX1504L2_MB.all.mb58.gz 66.41MB Kongsberg multibeam vendor format
0008_20150801_044451_EX1504L2_MB.all.mb58.gz 54.51MB Kongsberg multibeam vendor format
0009_20150801_053406_EX1504L2_MB.all.mb58.gz 3.02MB Kongsberg multibeam vendor format
0010_20150801_053649_EX1504L2_MB.all.mb58.gz 61.35MB Kongsberg multibeam vendor format
0011_20150801_063217_EX1504L2_MB.all.mb58.gz 67.00MB Kongsberg multibeam vendor format
0012_20150801_073219_EX1504L2_MB.all.mb58.gz 67.14MB Kongsberg multibeam vendor format
0013_20150801_083220_EX1504L2_MB.all.mb58.gz 67.13MB Kongsberg multibeam vendor format
0014_20150801_093220_EX1504L2_MB.all.mb58.gz 30.51MB Kongsberg multibeam vendor format
0015_20150801_095936_EX1504L2_MB.all.mb58.gz 59.45MB Kongsberg multibeam vendor format
0016_20150801_105259_EX1504L2_MB.all.mb58.gz 66.45MB Kongsberg multibeam vendor format
0017_20150801_115257_EX1504L2_MB.all.mb58.gz 16.58MB Kongsberg multibeam vendor format
0018_20150801_120759_EX1504L2_MB.all.mb58.gz 66.48MB Kongsberg multibeam vendor format
0019_20150801_130758_EX1504L2_MB.all.mb58.gz 66.61MB Kongsberg multibeam vendor format
0020_20150801_140803_EX1504L2_MB.all.mb58.gz 66.46MB Kongsberg multibeam vendor format
0021_20150801_150801_EX1504L2_MB.all.mb58.gz 66.40MB Kongsberg multibeam vendor format
0022_20150801_160759_EX1504L2_MB.all.mb58.gz 66.45MB Kongsberg multibeam vendor format
0023_20150801_170756_EX1504L2_MB.all.mb58.gz 11.14MB Kongsberg multibeam vendor format
0024_20150801_173141_EX1504L2_MB.all.mb58.gz 66.61MB Kongsberg multibeam vendor format
0025_20150801_183146_EX1504L2_MB.all.mb58.gz 1.06MB Kongsberg multibeam vendor format
0026_20150801_183243_EX1504L2_MB.all.mb58.gz 66.65MB Kongsberg multibeam vendor format
0027_20150801_193248_EX1504L2_MB.all.mb58.gz 66.37MB Kongsberg multibeam vendor format
0028_20150801_203249_EX1504L2_MB.all.mb58.gz 71.56MB Kongsberg multibeam vendor format
0029_20150801_213250_EX1504L2_MB.all.mb58.gz 47.62MB Kongsberg multibeam vendor format
0030_20150801_221611_EX1504L2_MB.all.mb58.gz 66.14MB Kongsberg multibeam vendor format
0031_20150801_231614_EX1504L2_MB.all.mb58.gz 66.07MB Kongsberg multibeam vendor format
0032_20150802_001617_EX1504L2_MB.all.mb58.gz 65.73MB Kongsberg multibeam vendor format
0033_20150802_011612_EX1504L2_MB.all.mb58.gz 66.20MB Kongsberg multibeam vendor format
0034_20150802_021616_EX1504L2_MB.all.mb58.gz 67.00MB Kongsberg multibeam vendor format
0035_20150802_031610_EX1504L2_MB.all.mb58.gz 67.43MB Kongsberg multibeam vendor format
0036_20150802_041615_EX1504L2_MB.all.mb58.gz 67.33MB Kongsberg multibeam vendor format
0037_20150802_051611_EX1504L2_MB.all.mb58.gz 67.53MB Kongsberg multibeam vendor format
0038_20150802_061612_EX1504L2_MB.all.mb58.gz 67.90MB Kongsberg multibeam vendor format
0039_20150802_071615_EX1504L2_MB.all.mb58.gz 17.83MB Kongsberg multibeam vendor format
0040_20150802_073155_EX1504L2_MB.all.mb58.gz 68.76MB Kongsberg multibeam vendor format
0041_20150802_083155_EX1504L2_MB.all.mb58.gz 69.36MB Kongsberg multibeam vendor format
0042_20150802_093158_EX1504L2_MB.all.mb58.gz 22.74MB Kongsberg multibeam vendor format
0043_20150802_094911_EX1504L2_MB.all.mb58.gz 5.74MB Kongsberg multibeam vendor format
0044_20150802_095324_EX1504L2_MB.all.mb58.gz 82.21MB Kongsberg multibeam vendor format
0045_20150802_105324_EX1504L2_MB.all.mb58.gz 9.39MB Kongsberg multibeam vendor format
0046_20150802_110018_EX1504L2_MB.all.mb58.gz 82.34MB Kongsberg multibeam vendor format
0047_20150802_120017_EX1504L2_MB.all.mb58.gz 9.87MB Kongsberg multibeam vendor format
0048_20150802_120726_EX1504L2_MB.all.mb58.gz 52.65MB Kongsberg multibeam vendor format
0049_20150802_123616_EX1504L2_MB.all.mb58.gz 40.34MB Kongsberg multibeam vendor format
0050_20150802_125547_EX1504L2_MB.all.mb58.gz 4.06MB Kongsberg multibeam vendor format
0051_20150802_125843_EX1504L2_MB.all.mb58.gz 17.48MB Kongsberg multibeam vendor format
0052_20150802_131112_EX1504L2_MB.all.mb58.gz 15.77MB Kongsberg multibeam vendor format
0053_20150802_132150_EX1504L2_MB.all.mb58.gz 21.81MB Kongsberg multibeam vendor format
0054_20150802_133746_EX1504L2_MB.all.mb58.gz 82.46MB Kongsberg multibeam vendor format
0055_20150802_143747_EX1504L2_MB.all.mb58.gz 79.60MB Kongsberg multibeam vendor format
0056_20150802_153458_EX1504L2_MB.all.mb58.gz 5.93MB Kongsberg multibeam vendor format
0057_20150802_154011_EX1504L2_MB.all.mb58.gz 20.88MB Kongsberg multibeam vendor format
0059_20150803_045723_EX1504L2_MB.all.mb58.gz 72.50MB Kongsberg multibeam vendor format
0060_20150803_055731_EX1504L2_MB.all.mb58.gz 66.58MB Kongsberg multibeam vendor format
0061_20150803_065728_EX1504L2_MB.all.mb58.gz 74.29MB Kongsberg multibeam vendor format
0062_20150803_075725_EX1504L2_MB.all.mb58.gz 134.00MB Kongsberg multibeam vendor format
0063_20150803_085724_EX1504L2_MB.all.mb58.gz 163.12MB Kongsberg multibeam vendor format
0064_20150803_095722_EX1504L2_MB.all.mb58.gz 136.97MB Kongsberg multibeam vendor format
0065_20150803_105728_EX1504L2_MB.all.mb58.gz 68.17MB Kongsberg multibeam vendor format
0066_20150803_115724_EX1504L2_MB.all.mb58.gz 66.34MB Kongsberg multibeam vendor format
0067_20150803_125724_EX1504L2_MB.all.mb58.gz 67.54MB Kongsberg multibeam vendor format
0068_20150803_135727_EX1504L2_MB.all.mb58.gz 54.34MB Kongsberg multibeam vendor format
0069_20150803_144605_EX1504L2_MB.all.mb58.gz 68.64MB Kongsberg multibeam vendor format
0070_20150803_154602_EX1504L2_MB.all.mb58.gz 62.76MB Kongsberg multibeam vendor format
0071_20150803_164201_EX1504L2_MB.all.mb58.gz 54.36MB Kongsberg multibeam vendor format
0072_20150803_173014_EX1504L2_MB.all.mb58.gz 38.87MB Kongsberg multibeam vendor format
0073_20150804_054919_EX1504L2_MB.all.mb58.gz 66.55MB Kongsberg multibeam vendor format
0074_20150804_064918_EX1504L2_MB.all.mb58.gz 66.03MB Kongsberg multibeam vendor format
0075_20150804_074918_EX1504L2_MB.all.mb58.gz 6.02MB Kongsberg multibeam vendor format
0076_20150804_075443_EX1504L2_MB.all.mb58.gz 66.44MB Kongsberg multibeam vendor format
0077_20150804_085437_EX1504L2_MB.all.mb58.gz 66.80MB Kongsberg multibeam vendor format
0078_20150804_095439_EX1504L2_MB.all.mb58.gz 44.76MB Kongsberg multibeam vendor format
0079_20150804_103456_EX1504L2_MB.all.mb58.gz 66.72MB Kongsberg multibeam vendor format
0080_20150804_113456_EX1504L2_MB.all.mb58.gz 65.22MB Kongsberg multibeam vendor format
0081_20150804_123316_EX1504L2_MB.all.mb58.gz 66.75MB Kongsberg multibeam vendor format
0082_20150804_133314_EX1504L2_MB.all.mb58.gz 66.00MB Kongsberg multibeam vendor format
0083_20150804_143314_EX1504L2_MB.all.mb58.gz 7.50MB Kongsberg multibeam vendor format
0084_20150804_144003_EX1504L2_MB.all.mb58.gz 67.01MB Kongsberg multibeam vendor format
0085_20150804_153957_EX1504L2_MB.all.mb58.gz 49.08MB Kongsberg multibeam vendor format
0086_20150805_034316_EX1504L2_MB.all.mb58.gz 71.22MB Kongsberg multibeam vendor format
0087_20150805_044321_EX1504L2_MB.all.mb58.gz 71.37MB Kongsberg multibeam vendor format
0088_20150805_054315_EX1504L2_MB.all.mb58.gz 116.69MB Kongsberg multibeam vendor format
0089_20150805_064316_EX1504L2_MB.all.mb58.gz 154.88MB Kongsberg multibeam vendor format
0090_20150805_074314_EX1504L2_MB.all.mb58.gz 141.36MB Kongsberg multibeam vendor format
0091_20150805_084315_EX1504L2_MB.all.mb58.gz 106.81MB Kongsberg multibeam vendor format
0092_20150805_094318_EX1504L2_MB.all.mb58.gz 94.95MB Kongsberg multibeam vendor format
0093_20150805_104315_EX1504L2_MB.all.mb58.gz 70.85MB Kongsberg multibeam vendor format
0094_20150805_114320_EX1504L2_MB.all.mb58.gz 10.38MB Kongsberg multibeam vendor format
0095_20150805_115233_EX1504L2_MB.all.mb58.gz 9.84MB Kongsberg multibeam vendor format
0096_20150805_120117_EX1504L2_MB.all.mb58.gz 68.26MB Kongsberg multibeam vendor format
0097_20150805_130121_EX1504L2_MB.all.mb58.gz 68.32MB Kongsberg multibeam vendor format
0098_20150805_140115_EX1504L2_MB.all.mb58.gz 68.52MB Kongsberg multibeam vendor format
0099_20150805_150120_EX1504L2_MB.all.mb58.gz 68.49MB Kongsberg multibeam vendor format
0100_20150805_160119_EX1504L2_MB.all.mb58.gz 67.86MB Kongsberg multibeam vendor format
0101_20150806_053337_EX1504L2_MB.all.mb58.gz 26.50MB Kongsberg multibeam vendor format
0102_20150806_055346_EX1504L2_MB.all.mb58.gz 14.22MB Kongsberg multibeam vendor format
0103_20150806_060524_EX1504L2_MB.all.mb58.gz 72.52MB Kongsberg multibeam vendor format
0104_20150806_070031_EX1504L2_MB.all.mb58.gz 63.16MB Kongsberg multibeam vendor format
0105_20150806_075349_EX1504L2_MB.all.mb58.gz 7.84MB Kongsberg multibeam vendor format
0106_20150806_080109_EX1504L2_MB.all.mb58.gz 74.90MB Kongsberg multibeam vendor format
0107_20150806_085905_EX1504L2_MB.all.mb58.gz 5.94MB Kongsberg multibeam vendor format
0108_20150806_090321_EX1504L2_MB.all.mb58.gz 74.11MB Kongsberg multibeam vendor format
0109_20150806_100318_EX1504L2_MB.all.mb58.gz 55.69MB Kongsberg multibeam vendor format
0110_20150806_105250_EX1504L2_MB.all.mb58.gz 6.40MB Kongsberg multibeam vendor format
0111_20150806_105837_EX1504L2_MB.all.mb58.gz 40.89MB Kongsberg multibeam vendor format
0112_20150806_113614_EX1504L2_MB.all.mb58.gz 5.27MB Kongsberg multibeam vendor format
0113_20150806_114059_EX1504L2_MB.all.mb58.gz 13.01MB Kongsberg multibeam vendor format
0114_20150806_115247_EX1504L2_MB.all.mb58.gz 44.95MB Kongsberg multibeam vendor format
0115_20150806_123344_EX1504L2_MB.all.mb58.gz 3.65MB Kongsberg multibeam vendor format
0116_20150806_123703_EX1504L2_MB.all.mb58.gz 19.93MB Kongsberg multibeam vendor format
0117_20150806_125510_EX1504L2_MB.all.mb58.gz 19.10MB Kongsberg multibeam vendor format
0118_20150806_131240_EX1504L2_MB.all.mb58.gz 49.92MB Kongsberg multibeam vendor format
0119_20150806_135818_EX1504L2_MB.all.mb58.gz 7.24MB Kongsberg multibeam vendor format
0120_20150806_140444_EX1504L2_MB.all.mb58.gz 13.83MB Kongsberg multibeam vendor format
0121_20150806_141710_EX1504L2_MB.all.mb58.gz 5.92MB Kongsberg multibeam vendor format
0122_20150806_142230_EX1504L2_MB.all.mb58.gz 66.40MB Kongsberg multibeam vendor format
0123_20150806_152230_EX1504L2_MB.all.mb58.gz 7.50MB Kongsberg multibeam vendor format
0124_20150806_152916_EX1504L2_MB.all.mb58.gz 34.08MB Kongsberg multibeam vendor format
0125_20150807_045029_EX1504L2_MB.all.mb58.gz 14.21MB Kongsberg multibeam vendor format
0126_20150807_050323_EX1504L2_MB.all.mb58.gz 32.70MB Kongsberg multibeam vendor format
0127_20150807_053258_EX1504L2_MB.all.mb58.gz 66.12MB Kongsberg multibeam vendor format
0128_20150807_063300_EX1504L2_MB.all.mb58.gz 36.07MB Kongsberg multibeam vendor format
0129_20150807_070548_EX1504L2_MB.all.mb58.gz 17.73MB Kongsberg multibeam vendor format
0130_20150807_072158_EX1504L2_MB.all.mb58.gz 4.87MB Kongsberg multibeam vendor format
0131_20150807_072623_EX1504L2_MB.all.mb58.gz 66.57MB Kongsberg multibeam vendor format
0132_20150807_082623_EX1504L2_MB.all.mb58.gz 7.87MB Kongsberg multibeam vendor format
0133_20150807_083330_EX1504L2_MB.all.mb58.gz 2.38MB Kongsberg multibeam vendor format
0134_20150807_083539_EX1504L2_MB.all.mb58.gz 28.50MB Kongsberg multibeam vendor format
0135_20150807_090113_EX1504L2_MB.all.mb58.gz 5.99MB Kongsberg multibeam vendor format
0136_20150807_090635_EX1504L2_MB.all.mb58.gz 66.97MB Kongsberg multibeam vendor format
0137_20150807_100637_EX1504L2_MB.all.mb58.gz 48.41MB Kongsberg multibeam vendor format
0138_20150807_104956_EX1504L2_MB.all.mb58.gz 66.96MB Kongsberg multibeam vendor format
0139_20150807_114950_EX1504L2_MB.all.mb58.gz 13.68MB Kongsberg multibeam vendor format
0140_20150807_120204_EX1504L2_MB.all.mb58.gz 67.00MB Kongsberg multibeam vendor format
0141_20150807_130201_EX1504L2_MB.all.mb58.gz 66.99MB Kongsberg multibeam vendor format
0142_20150807_140200_EX1504L2_MB.all.mb58.gz 66.99MB Kongsberg multibeam vendor format
0143_20150807_150159_EX1504L2_MB.all.mb58.gz 67.17MB Kongsberg multibeam vendor format
0144_20150807_160205_EX1504L2_MB.all.mb58.gz 67.15MB Kongsberg multibeam vendor format
0145_20150807_170159_EX1504L2_MB.all.mb58.gz 16.79MB Kongsberg multibeam vendor format
0146_20150807_171656_EX1504L2_MB.all.mb58.gz 67.60MB Kongsberg multibeam vendor format
0147_20150807_181655_EX1504L2_MB.all.mb58.gz 58.00MB Kongsberg multibeam vendor format
0148_20150808_050632_EX1504L2_MB.all.mb58.gz 48.59MB Kongsberg multibeam vendor format
0149_20150808_054829_EX1504L2_MB.all.mb58.gz 1.66MB Kongsberg multibeam vendor format
0150_20150808_054959_EX1504L2_MB.all.mb58.gz 67.19MB Kongsberg multibeam vendor format
0151_20150808_064957_EX1504L2_MB.all.mb58.gz 49.34MB Kongsberg multibeam vendor format
0152_20150808_073226_EX1504L2_MB.all.mb58.gz 42.96MB Kongsberg multibeam vendor format
0153_20150808_080947_EX1504L2_MB.all.mb58.gz 6.34MB Kongsberg multibeam vendor format
0154_20150808_081519_EX1504L2_MB.all.mb58.gz 11.21MB Kongsberg multibeam vendor format
0155_20150808_082500_EX1504L2_MB.all.mb58.gz 7.64MB Kongsberg multibeam vendor format
0156_20150808_083143_EX1504L2_MB.all.mb58.gz 67.68MB Kongsberg multibeam vendor format
0157_20150808_093136_EX1504L2_MB.all.mb58.gz 66.95MB Kongsberg multibeam vendor format
0158_20150808_103142_EX1504L2_MB.all.mb58.gz 18.86MB Kongsberg multibeam vendor format
0159_20150808_104840_EX1504L2_MB.all.mb58.gz 15.47MB Kongsberg multibeam vendor format
0160_20150808_110231_EX1504L2_MB.all.mb58.gz 22.44MB Kongsberg multibeam vendor format
0161_20150808_112225_EX1504L2_MB.all.mb58.gz 31.14MB Kongsberg multibeam vendor format
0162_20150808_115055_EX1504L2_MB.all.mb58.gz 34.07MB Kongsberg multibeam vendor format
0163_20150808_122210_EX1504L2_MB.all.mb58.gz 65.47MB Kongsberg multibeam vendor format
0164_20150808_132214_EX1504L2_MB.all.mb58.gz 65.47MB Kongsberg multibeam vendor format
0165_20150808_142216_EX1504L2_MB.all.mb58.gz 17.50MB Kongsberg multibeam vendor format
0166_20150808_143820_EX1504L2_MB.all.mb58.gz 6.57MB Kongsberg multibeam vendor format
0167_20150808_144421_EX1504L2_MB.all.mb58.gz 66.84MB Kongsberg multibeam vendor format
0168_20150808_154422_EX1504L2_MB.all.mb58.gz 17.69MB Kongsberg multibeam vendor format
0169_20150809_015136_EX1504L2_MB.all.mb58.gz 70.64MB Kongsberg multibeam vendor format
0170_20150809_025133_EX1504L2_MB.all.mb58.gz 65.80MB Kongsberg multibeam vendor format
0171_20150809_035132_EX1504L2_MB.all.mb58.gz 15.26MB Kongsberg multibeam vendor format
0172_20150809_040521_EX1504L2_MB.all.mb58.gz 2.94MB Kongsberg multibeam vendor format
0173_20150809_055753_EX1504L2_MB.all.mb58.gz 15.02MB Kongsberg multibeam vendor format
0174_20150809_061132_EX1504L2_MB.all.mb58.gz 66.65MB Kongsberg multibeam vendor format
0175_20150809_071127_EX1504L2_MB.all.mb58.gz 66.43MB Kongsberg multibeam vendor format
0176_20150809_081132_EX1504L2_MB.all.mb58.gz 63.27MB Kongsberg multibeam vendor format
0177_20150809_090833_EX1504L2_MB.all.mb58.gz 66.32MB Kongsberg multibeam vendor format
0178_20150809_100835_EX1504L2_MB.all.mb58.gz 33.38MB Kongsberg multibeam vendor format
0179_20150809_103854_EX1504L2_MB.all.mb58.gz 66.17MB Kongsberg multibeam vendor format
0180_20150809_113858_EX1504L2_MB.all.mb58.gz 9.63MB Kongsberg multibeam vendor format
0181_20150809_114743_EX1504L2_MB.all.mb58.gz 65.93MB Kongsberg multibeam vendor format
0182_20150809_124743_EX1504L2_MB.all.mb58.gz 66.01MB Kongsberg multibeam vendor format
0183_20150809_134739_EX1504L2_MB.all.mb58.gz 66.09MB Kongsberg multibeam vendor format
0184_20150809_144736_EX1504L2_MB.all.mb58.gz 66.26MB Kongsberg multibeam vendor format
0185_20150809_154742_EX1504L2_MB.all.mb58.gz 31.35MB Kongsberg multibeam vendor format
0186_20150809_161607_EX1504L2_MB.all.mb58.gz 6.77MB Kongsberg multibeam vendor format
0187_20150809_162216_EX1504L2_MB.all.mb58.gz 33.93MB Kongsberg multibeam vendor format
0188_20150809_165310_EX1504L2_MB.all.mb58.gz 9.09MB Kongsberg multibeam vendor format
0189_20150809_170127_EX1504L2_MB.all.mb58.gz 66.21MB Kongsberg multibeam vendor format
0190_20150809_180127_EX1504L2_MB.all.mb58.gz 29.45MB Kongsberg multibeam vendor format
0191_20150810_052447_EX1504L2_MB.all.mb58.gz 65.99MB Kongsberg multibeam vendor format
0192_20150810_062438_EX1504L2_MB.all.mb58.gz 65.54MB Kongsberg multibeam vendor format
0193_20150810_072440_EX1504L2_MB.all.mb58.gz 15.83MB Kongsberg multibeam vendor format
0194_20150810_073909_EX1504L2_MB.all.mb58.gz 66.19MB Kongsberg multibeam vendor format
0195_20150810_083913_EX1504L2_MB.all.mb58.gz 62.49MB Kongsberg multibeam vendor format
0196_20150810_092540_EX1504L2_MB.all.mb58.gz 28.14MB Kongsberg multibeam vendor format
0197_20150810_094601_EX1504L2_MB.all.mb58.gz 13.57MB Kongsberg multibeam vendor format
0198_20150810_095621_EX1504L2_MB.all.mb58.gz 71.49MB Kongsberg multibeam vendor format
0199_20150810_104712_EX1504L2_MB.all.mb58.gz 11.94MB Kongsberg multibeam vendor format
0200_20150810_105544_EX1504L2_MB.all.mb58.gz 4.71MB Kongsberg multibeam vendor format
0201_20150810_105907_EX1504L2_MB.all.mb58.gz 24.69MB Kongsberg multibeam vendor format
0202_20150810_111642_EX1504L2_MB.all.mb58.gz 5.03MB Kongsberg multibeam vendor format
0203_20150810_112021_EX1504L2_MB.all.mb58.gz 39.42MB Kongsberg multibeam vendor format
0204_20150810_114819_EX1504L2_MB.all.mb58.gz 12.53MB Kongsberg multibeam vendor format
0205_20150810_115735_EX1504L2_MB.all.mb58.gz 22.37MB Kongsberg multibeam vendor format
0206_20150810_121419_EX1504L2_MB.all.mb58.gz 2.29MB Kongsberg multibeam vendor format
0207_20150810_121602_EX1504L2_MB.all.mb58.gz 70.93MB Kongsberg multibeam vendor format
0208_20150810_130943_EX1504L2_MB.all.mb58.gz 5.52MB Kongsberg multibeam vendor format
0209_20150810_131355_EX1504L2_MB.all.mb58.gz 41.05MB Kongsberg multibeam vendor format
0210_20150810_134326_EX1504L2_MB.all.mb58.gz 5.17MB Kongsberg multibeam vendor format
0211_20150810_134608_EX1504L2_MB.all.mb58.gz 30.01MB Kongsberg multibeam vendor format
0212_20150810_140430_EX1504L2_MB.all.mb58.gz 7.79MB Kongsberg multibeam vendor format
0213_20150810_141004_EX1504L2_MB.all.mb58.gz 60.85MB Kongsberg multibeam vendor format
0214_20150810_144956_EX1504L2_MB.all.mb58.gz 4.25MB Kongsberg multibeam vendor format
0215_20150810_145306_EX1504L2_MB.all.mb58.gz 71.26MB Kongsberg multibeam vendor format
0216_20150810_155259_EX1504L2_MB.all.mb58.gz 31.20MB Kongsberg multibeam vendor format
0217_20150811_034000_EX1504L2_MB.all.mb58.gz 75.69MB Kongsberg multibeam vendor format
0218_20150811_043953_EX1504L2_MB.all.mb58.gz 338.1KB Kongsberg multibeam vendor format
0219_20150811_044005_EX1504L2_MB.all.mb58.gz 11.67MB Kongsberg multibeam vendor format
0220_20150811_044810_EX1504L2_MB.all.mb58.gz 61.48MB Kongsberg multibeam vendor format
0221_20150811_053113_EX1504L2_MB.all.mb58.gz 14.54MB Kongsberg multibeam vendor format
0222_20150811_054111_EX1504L2_MB.all.mb58.gz 12.57MB Kongsberg multibeam vendor format
0223_20150811_054908_EX1504L2_MB.all.mb58.gz 20.41MB Kongsberg multibeam vendor format
0224_20150811_060334_EX1504L2_MB.all.mb58.gz 7.46MB Kongsberg multibeam vendor format
0225_20150811_060843_EX1504L2_MB.all.mb58.gz 14.15MB Kongsberg multibeam vendor format
0226_20150811_061858_EX1504L2_MB.all.mb58.gz 39.89MB Kongsberg multibeam vendor format
0227_20150811_064615_EX1504L2_MB.all.mb58.gz 9.53MB Kongsberg multibeam vendor format
0228_20150811_065309_EX1504L2_MB.all.mb58.gz 80.93MB Kongsberg multibeam vendor format
0229_20150811_075310_EX1504L2_MB.all.mb58.gz 99.02MB Kongsberg multibeam vendor format
0230_20150811_085059_EX1504L2_MB.all.mb58.gz 12.13MB Kongsberg multibeam vendor format
0231_20150811_085824_EX1504L2_MB.all.mb58.gz 5.63MB Kongsberg multibeam vendor format
0232_20150811_090231_EX1504L2_MB.all.mb58.gz 51.04MB Kongsberg multibeam vendor format
0233_20150811_094315_EX1504L2_MB.all.mb58.gz 26.18MB Kongsberg multibeam vendor format
0234_20150811_100647_EX1504L2_MB.all.mb58.gz 41.97MB Kongsberg multibeam vendor format
0235_20150811_104110_EX1504L2_MB.all.mb58.gz 27.59MB Kongsberg multibeam vendor format
0236_20150811_110218_EX1504L2_MB.all.mb58.gz 22.49MB Kongsberg multibeam vendor format
0237_20150811_112132_EX1504L2_MB.all.mb58.gz 8.07MB Kongsberg multibeam vendor format
0238_20150811_112840_EX1504L2_MB.all.mb58.gz 47.02MB Kongsberg multibeam vendor format
0239_20150811_120919_EX1504L2_MB.all.mb58.gz 11.81MB Kongsberg multibeam vendor format
0240_20150811_121907_EX1504L2_MB.all.mb58.gz 29.66MB Kongsberg multibeam vendor format
0240_20150811_130519_EX1504L2_MB.all.mb58.gz 5.05MB Kongsberg multibeam vendor format
0241_20150811_130946_EX1504L2_MB.all.mb58.gz 56.69MB Kongsberg multibeam vendor format
0242_20150811_140054_EX1504L2_MB.all.mb58.gz 26.43MB Kongsberg multibeam vendor format
0243_20150811_142501_EX1504L2_MB.all.mb58.gz 11.32MB Kongsberg multibeam vendor format
0244_20150811_143522_EX1504L2_MB.all.mb58.gz 1.06MB Kongsberg multibeam vendor format
0245_20150811_143620_EX1504L2_MB.all.mb58.gz 17.16MB Kongsberg multibeam vendor format
0246_20150811_145203_EX1504L2_MB.all.mb58.gz 46.14MB Kongsberg multibeam vendor format
0247_20150811_153351_EX1504L2_MB.all.mb58.gz 6.67MB Kongsberg multibeam vendor format
0248_20150811_153949_EX1504L2_MB.all.mb58.gz 6.28MB Kongsberg multibeam vendor format
0249_20150811_154524_EX1504L2_MB.all.mb58.gz 16.35MB Kongsberg multibeam vendor format
0250_20150811_155948_EX1504L2_MB.all.mb58.gz 20.21MB Kongsberg multibeam vendor format
0251_20150812_032547_EX1504L2_MB.all.mb58.gz 50.25MB Kongsberg multibeam vendor format
0252_20150812_040332_EX1504L2_MB.all.mb58.gz 36.78MB Kongsberg multibeam vendor format
0253_20150812_043420_EX1504L2_MB.all.mb58.gz 1.64MB Kongsberg multibeam vendor format
0254_20150812_043549_EX1504L2_MB.all.mb58.gz 32.44MB Kongsberg multibeam vendor format
0255_20150812_050510_EX1504L2_MB.all.mb58.gz 19.95MB Kongsberg multibeam vendor format
0256_20150812_052310_EX1504L2_MB.all.mb58.gz 8.87MB Kongsberg multibeam vendor format
0257_20150812_053107_EX1504L2_MB.all.mb58.gz 67.94MB Kongsberg multibeam vendor format
0258_20150812_062317_EX1504L2_MB.all.mb58.gz 2.51MB Kongsberg multibeam vendor format
0259_20150812_062504_EX1504L2_MB.all.mb58.gz 57.74MB Kongsberg multibeam vendor format
0260_20150812_070650_EX1504L2_MB.all.mb58.gz 48.98MB Kongsberg multibeam vendor format
0261_20150812_074257_EX1504L2_MB.all.mb58.gz 53.03MB Kongsberg multibeam vendor format
0262_20150812_082102_EX1504L2_MB.all.mb58.gz 36.98MB Kongsberg multibeam vendor format
0263_20150812_084922_EX1504L2_MB.all.mb58.gz 80.53MB Kongsberg multibeam vendor format
0264_20150812_094916_EX1504L2_MB.all.mb58.gz 8.31MB Kongsberg multibeam vendor format
0265_20150812_095527_EX1504L2_MB.all.mb58.gz 3.73MB Kongsberg multibeam vendor format
0266_20150812_095815_EX1504L2_MB.all.mb58.gz 33.72MB Kongsberg multibeam vendor format
0267_20150812_102536_EX1504L2_MB.all.mb58.gz 32.19MB Kongsberg multibeam vendor format
0268_20150812_105433_EX1504L2_MB.all.mb58.gz 12.02MB Kongsberg multibeam vendor format
0269_20150812_142624_EX1504L2_MB.all.mb58.gz 66.23MB Kongsberg multibeam vendor format
0270_20150812_152621_EX1504L2_MB.all.mb58.gz 48.36MB Kongsberg multibeam vendor format
0271_20150813_032001_EX1504L2_MB.all.mb58.gz 24.98MB Kongsberg multibeam vendor format
0272_20150813_035622_EX1504L2_MB.all.mb58.gz 36.30MB Kongsberg multibeam vendor format
0273_20150813_042836_EX1504L2_MB.all.mb58.gz 7.10MB Kongsberg multibeam vendor format
0274_20150813_043504_EX1504L2_MB.all.mb58.gz 4.81MB Kongsberg multibeam vendor format
0275_20150813_043926_EX1504L2_MB.all.mb58.gz 57.10MB Kongsberg multibeam vendor format
0276_20150813_053132_EX1504L2_MB.all.mb58.gz 45.30MB Kongsberg multibeam vendor format
0277_20150813_061243_EX1504L2_MB.all.mb58.gz 22.01MB Kongsberg multibeam vendor format
0278_20150813_063231_EX1504L2_MB.all.mb58.gz 10.99MB Kongsberg multibeam vendor format
0279_20150813_064226_EX1504L2_MB.all.mb58.gz 65.85MB Kongsberg multibeam vendor format
0280_20150813_074227_EX1504L2_MB.all.mb58.gz 56.54MB Kongsberg multibeam vendor format
0281_20150813_083354_EX1504L2_MB.all.mb58.gz 35.91MB Kongsberg multibeam vendor format
0282_20150813_090627_EX1504L2_MB.all.mb58.gz 3.97MB Kongsberg multibeam vendor format
0283_20150813_091002_EX1504L2_MB.all.mb58.gz 9.56MB Kongsberg multibeam vendor format
0284_20150813_091843_EX1504L2_MB.all.mb58.gz 65.30MB Kongsberg multibeam vendor format
0285_20150813_101814_EX1504L2_MB.all.mb58.gz 33.84MB Kongsberg multibeam vendor format
0286_20150813_104910_EX1504L2_MB.all.mb58.gz 30.82MB Kongsberg multibeam vendor format
0287_20150813_111718_EX1504L2_MB.all.mb58.gz 29.08MB Kongsberg multibeam vendor format
0288_20150813_114349_EX1504L2_MB.all.mb58.gz 65.85MB Kongsberg multibeam vendor format
0289_20150813_124346_EX1504L2_MB.all.mb58.gz 10.52MB Kongsberg multibeam vendor format
0290_20150813_125313_EX1504L2_MB.all.mb58.gz 42.66MB Kongsberg multibeam vendor format
0291_20150813_133131_EX1504L2_MB.all.mb58.gz 20.54MB Kongsberg multibeam vendor format
0292_20150813_135005_EX1504L2_MB.all.mb58.gz 65.82MB Kongsberg multibeam vendor format
0293_20150813_145004_EX1504L2_MB.all.mb58.gz 35.48MB Kongsberg multibeam vendor format
0294_20150813_152218_EX1504L2_MB.all.mb58.gz 40.38MB Kongsberg multibeam vendor format
0295_20150814_054409_EX1504L2_MB.all.mb58.gz 65.86MB Kongsberg multibeam vendor format
0296_20150814_064401_EX1504L2_MB.all.mb58.gz 35.64MB Kongsberg multibeam vendor format
0297_20150815_020236_EX1504L2_MB.all.mb58.gz 67.50MB Kongsberg multibeam vendor format
0298_20150815_030243_EX1504L2_MB.all.mb58.gz 54.53MB Kongsberg multibeam vendor format
0299_20150815_035211_EX1504L2_MB.all.mb58.gz 58.33MB Kongsberg multibeam vendor format
0300_20150815_044350_EX1504L2_MB.all.mb58.gz 65.26MB Kongsberg multibeam vendor format
0301_20150815_054348_EX1504L2_MB.all.mb58.gz 8.14MB Kongsberg multibeam vendor format
0302_20150815_055118_EX1504L2_MB.all.mb58.gz 64.93MB Kongsberg multibeam vendor format
0303_20150815_065112_EX1504L2_MB.all.mb58.gz 65.22MB Kongsberg multibeam vendor format
0304_20150815_075118_EX1504L2_MB.all.mb58.gz 66.21MB Kongsberg multibeam vendor format
0305_20150815_085111_EX1504L2_MB.all.mb58.gz 66.44MB Kongsberg multibeam vendor format
0306_20150815_095114_EX1504L2_MB.all.mb58.gz 66.37MB Kongsberg multibeam vendor format
0307_20150815_105115_EX1504L2_MB.all.mb58.gz 57.68MB Kongsberg multibeam vendor format
0308_20150815_114313_EX1504L2_MB.all.mb58.gz 66.35MB Kongsberg multibeam vendor format
0309_20150815_124301_EX1504L2_MB.all.mb58.gz 66.49MB Kongsberg multibeam vendor format
0310_20150815_134302_EX1504L2_MB.all.mb58.gz 66.83MB Kongsberg multibeam vendor format
0311_20150815_144304_EX1504L2_MB.all.mb58.gz 62.35MB Kongsberg multibeam vendor format
0312_20150815_153856_EX1504L2_MB.all.mb58.gz 33.34MB Kongsberg multibeam vendor format
0313_20150816_032538_EX1504L2_MB.all.mb58.gz 71.96MB Kongsberg multibeam vendor format
0314_20150816_042545_EX1504L2_MB.all.mb58.gz 65.57MB Kongsberg multibeam vendor format
0315_20150816_052539_EX1504L2_MB.all.mb58.gz 65.62MB Kongsberg multibeam vendor format
0316_20150816_062537_EX1504L2_MB.all.mb58.gz 65.77MB Kongsberg multibeam vendor format
0317_20150816_072545_EX1504L2_MB.all.mb58.gz 65.63MB Kongsberg multibeam vendor format
0318_20150816_082541_EX1504L2_MB.all.mb58.gz 47.02MB Kongsberg multibeam vendor format
0319_20150816_090831_EX1504L2_MB.all.mb58.gz 66.08MB Kongsberg multibeam vendor format
0320_20150816_100829_EX1504L2_MB.all.mb58.gz 66.50MB Kongsberg multibeam vendor format
0321_20150816_110824_EX1504L2_MB.all.mb58.gz 21.23MB Kongsberg multibeam vendor format
0322_20150816_112705_EX1504L2_MB.all.mb58.gz 21.93MB Kongsberg multibeam vendor format
0323_20150816_114510_EX1504L2_MB.all.mb58.gz 6.15MB Kongsberg multibeam vendor format
0324_20150816_115020_EX1504L2_MB.all.mb58.gz 70.15MB Kongsberg multibeam vendor format
0325_20150816_125007_EX1504L2_MB.all.mb58.gz 67.88MB Kongsberg multibeam vendor format
0326_20150816_135015_EX1504L2_MB.all.mb58.gz 66.79MB Kongsberg multibeam vendor format
0327_20150816_145011_EX1504L2_MB.all.mb58.gz 67.75MB Kongsberg multibeam vendor format
0328_20150816_155013_EX1504L2_MB.all.mb58.gz 4.33MB Kongsberg multibeam vendor format
0329_20150816_155324_EX1504L2_MB.all.mb58.gz 15.99MB Kongsberg multibeam vendor format
0330_20150817_032054_EX1504L2_MB.all.mb58.gz 92.58MB Kongsberg multibeam vendor format
0331_20150817_042052_EX1504L2_MB.all.mb58.gz 85.16MB Kongsberg multibeam vendor format
0332_20150817_052057_EX1504L2_MB.all.mb58.gz 80.82MB Kongsberg multibeam vendor format
0333_20150817_062056_EX1504L2_MB.all.mb58.gz 77.67MB Kongsberg multibeam vendor format
0334_20150817_072057_EX1504L2_MB.all.mb58.gz 67.65MB Kongsberg multibeam vendor format
0335_20150817_082054_EX1504L2_MB.all.mb58.gz 66.92MB Kongsberg multibeam vendor format
0336_20150817_092053_EX1504L2_MB.all.mb58.gz 66.77MB Kongsberg multibeam vendor format
0337_20150817_102057_EX1504L2_MB.all.mb58.gz 29.39MB Kongsberg multibeam vendor format
0338_20150817_105009_EX1504L2_MB.all.mb58.gz 65.09MB Kongsberg multibeam vendor format
0339_20150817_114536_EX1504L2_MB.all.mb58.gz 83.34MB Kongsberg multibeam vendor format
0340_20150817_124533_EX1504L2_MB.all.mb58.gz 89.73MB Kongsberg multibeam vendor format
0341_20150817_134532_EX1504L2_MB.all.mb58.gz 67.48MB Kongsberg multibeam vendor format
0342_20150817_144532_EX1504L2_MB.all.mb58.gz 78.25MB Kongsberg multibeam vendor format
0343_20150817_154533_EX1504L2_MB.all.mb58.gz 34.85MB Kongsberg multibeam vendor format
0344_20150818_033835_EX1504L2_MB.all.mb58.gz 86.65MB Kongsberg multibeam vendor format
0345_20150818_043834_EX1504L2_MB.all.mb58.gz 83.11MB Kongsberg multibeam vendor format
0346_20150818_053834_EX1504L2_MB.all.mb58.gz 70.86MB Kongsberg multibeam vendor format
0347_20150818_063840_EX1504L2_MB.all.mb58.gz 66.73MB Kongsberg multibeam vendor format
0348_20150818_073840_EX1504L2_MB.all.mb58.gz 66.13MB Kongsberg multibeam vendor format
0349_20150818_083835_EX1504L2_MB.all.mb58.gz 57.35MB Kongsberg multibeam vendor format
0350_20150818_093023_EX1504L2_MB.all.mb58.gz 9.49MB Kongsberg multibeam vendor format
0351_20150818_093855_EX1504L2_MB.all.mb58.gz 66.85MB Kongsberg multibeam vendor format
0352_20150818_103855_EX1504L2_MB.all.mb58.gz 66.31MB Kongsberg multibeam vendor format
0353_20150818_113850_EX1504L2_MB.all.mb58.gz 5.53MB Kongsberg multibeam vendor format
0354_20150818_114348_EX1504L2_MB.all.mb58.gz 28.49MB Kongsberg multibeam vendor format
0355_20150818_120944_EX1504L2_MB.all.mb58.gz 29.89MB Kongsberg multibeam vendor format
0356_20150818_123659_EX1504L2_MB.all.mb58.gz 4.33MB Kongsberg multibeam vendor format
0357_20150818_124055_EX1504L2_MB.all.mb58.gz 66.81MB Kongsberg multibeam vendor format
0358_20150818_134052_EX1504L2_MB.all.mb58.gz 67.00MB Kongsberg multibeam vendor format
0359_20150818_144002_EX1504L2_MB.all.mb58.gz 42.62MB Kongsberg multibeam vendor format
0360_20150818_151718_EX1504L2_MB.all.mb58.gz 27.33MB Kongsberg multibeam vendor format
0361_20150818_154009_EX1504L2_MB.all.mb58.gz 15.65MB Kongsberg multibeam vendor format
0362_20150818_155209_EX1504L2_MB.all.mb58.gz 27.81MB Kongsberg multibeam vendor format
0363_20150819_053713_EX1504L2_MB.all.mb58.gz 66.65MB Kongsberg multibeam vendor format
0364_20150819_063713_EX1504L2_MB.all.mb58.gz 42.98MB Kongsberg multibeam vendor format
0365_20150819_071555_EX1504L2_MB.all.mb58.gz 67.51MB Kongsberg multibeam vendor format
0366_20150819_081558_EX1504L2_MB.all.mb58.gz 72.61MB Kongsberg multibeam vendor format
0367_20150819_091554_EX1504L2_MB.all.mb58.gz 20.04MB Kongsberg multibeam vendor format
0368_20150819_093359_EX1504L2_MB.all.mb58.gz 5.40MB Kongsberg multibeam vendor format
0369_20150819_093850_EX1504L2_MB.all.mb58.gz 66.14MB Kongsberg multibeam vendor format
0370_20150819_103855_EX1504L2_MB.all.mb58.gz 25.34MB Kongsberg multibeam vendor format
0371_20150819_110208_EX1504L2_MB.all.mb58.gz 65.36MB Kongsberg multibeam vendor format
0372_20150819_120156_EX1504L2_MB.all.mb58.gz 66.24MB Kongsberg multibeam vendor format
0373_20150819_130153_EX1504L2_MB.all.mb58.gz 66.44MB Kongsberg multibeam vendor format
0374_20150819_140156_EX1504L2_MB.all.mb58.gz 66.35MB Kongsberg multibeam vendor format
0375_20150819_150159_EX1504L2_MB.all.mb58.gz 66.52MB Kongsberg multibeam vendor format
0376_20150819_160153_EX1504L2_MB.all.mb58.gz 66.73MB Kongsberg multibeam vendor format
0377_20150819_170158_EX1504L2_MB.all.mb58.gz 66.37MB Kongsberg multibeam vendor format
0378_20150819_180200_EX1504L2_MB.all.mb58.gz 66.39MB Kongsberg multibeam vendor format
0379_20150819_190154_EX1504L2_MB.all.mb58.gz 36.13MB Kongsberg multibeam vendor format
0380_20150819_193413_EX1504L2_MB.all.mb58.gz 67.08MB Kongsberg multibeam vendor format
0381_20150819_203414_EX1504L2_MB.all.mb58.gz 67.38MB Kongsberg multibeam vendor format
0382_20150819_213407_EX1504L2_MB.all.mb58.gz 67.50MB Kongsberg multibeam vendor format
0383_20150819_223407_EX1504L2_MB.all.mb58.gz 67.50MB Kongsberg multibeam vendor format
0384_20150819_233409_EX1504L2_MB.all.mb58.gz 66.63MB Kongsberg multibeam vendor format
0385_20150820_003410_EX1504L2_MB.all.mb58.gz 66.69MB Kongsberg multibeam vendor format
0386_20150820_013411_EX1504L2_MB.all.mb58.gz 66.39MB Kongsberg multibeam vendor format
0387_20150820_023257_EX1504L2_MB.all.mb58.gz 29.22MB Kongsberg multibeam vendor format
0388_20150820_025509_EX1504L2_MB.all.mb58.gz 35.17MB Kongsberg multibeam vendor format
0389_20150820_032408_EX1504L2_MB.all.mb58.gz 13.12MB Kongsberg multibeam vendor format
0390_20150820_033422_EX1504L2_MB.all.mb58.gz 72.16MB Kongsberg multibeam vendor format
0391_20150820_042730_EX1504L2_MB.all.mb58.gz 21.99MB Kongsberg multibeam vendor format
0392_20150820_044413_EX1504L2_MB.all.mb58.gz 71.87MB Kongsberg multibeam vendor format
0393_20150820_054412_EX1504L2_MB.all.mb58.gz 66.76MB Kongsberg multibeam vendor format
0394_20150820_064410_EX1504L2_MB.all.mb58.gz 66.93MB Kongsberg multibeam vendor format
0395_20150820_074411_EX1504L2_MB.all.mb58.gz 49.92MB Kongsberg multibeam vendor format
0396_20150820_082858_EX1504L2_MB.all.mb58.gz 66.37MB Kongsberg multibeam vendor format
0397_20150820_092900_EX1504L2_MB.all.mb58.gz 66.79MB Kongsberg multibeam vendor format
0398_20150820_102859_EX1504L2_MB.all.mb58.gz 46.37MB Kongsberg multibeam vendor format
0399_20150820_111037_EX1504L2_MB.all.mb58.gz 66.89MB Kongsberg multibeam vendor format
0400_20150820_121037_EX1504L2_MB.all.mb58.gz 9.23MB Kongsberg multibeam vendor format
0401_20150820_121852_EX1504L2_MB.all.mb58.gz 48.03MB Kongsberg multibeam vendor format
0402_20150820_130151_EX1504L2_MB.all.mb58.gz 70.35MB Kongsberg multibeam vendor format
0403_20150820_140151_EX1504L2_MB.all.mb58.gz 57.93MB Kongsberg multibeam vendor format
0404_20150820_144844_EX1504L2_MB.all.mb58.gz 9.05MB Kongsberg multibeam vendor format
0405_20150820_145644_EX1504L2_MB.all.mb58.gz 69.09MB Kongsberg multibeam vendor format
0406_20150820_155646_EX1504L2_MB.all.mb58.gz 19.33MB Kongsberg multibeam vendor format
0407_20150821_015649_EX1504L2_MB.all.mb58.gz 78.97MB Kongsberg multibeam vendor format
0408_20150821_025651_EX1504L2_MB.all.mb58.gz 78.92MB Kongsberg multibeam vendor format
0409_20150821_035648_EX1504L2_MB.all.mb58.gz 24.98MB Kongsberg multibeam vendor format
0410_20150821_041543_EX1504L2_MB.all.mb58.gz 22.59MB Kongsberg multibeam vendor format
0411_20150821_043231_EX1504L2_MB.all.mb58.gz 35.45MB Kongsberg multibeam vendor format
0412_20150821_045843_EX1504L2_MB.all.mb58.gz 79.86MB Kongsberg multibeam vendor format
0413_20150821_055847_EX1504L2_MB.all.mb58.gz 96.24MB Kongsberg multibeam vendor format
0414_20150821_065842_EX1504L2_MB.all.mb58.gz 134.78MB Kongsberg multibeam vendor format
0415_20150821_075841_EX1504L2_MB.all.mb58.gz 76.83MB Kongsberg multibeam vendor format
0416_20150821_085452_EX1504L2_MB.all.mb58.gz 79.46MB Kongsberg multibeam vendor format
0417_20150821_095448_EX1504L2_MB.all.mb58.gz 68.18MB Kongsberg multibeam vendor format
0418_20150821_105453_EX1504L2_MB.all.mb58.gz 67.23MB Kongsberg multibeam vendor format
0419_20150821_115446_EX1504L2_MB.all.mb58.gz 67.64MB Kongsberg multibeam vendor format
0420_20150821_125448_EX1504L2_MB.all.mb58.gz 66.92MB Kongsberg multibeam vendor format
0421_20150821_135451_EX1504L2_MB.all.mb58.gz 66.35MB Kongsberg multibeam vendor format
0422_20150821_145452_EX1504L2_MB.all.mb58.gz 66.46MB Kongsberg multibeam vendor format
0423_20150821_155448_EX1504L2_MB.all.mb58.gz 79.62MB Kongsberg multibeam vendor format
0424_20150821_165450_EX1504L2_MB.all.mb58.gz 138.32MB Kongsberg multibeam vendor format
0425_20150821_175447_EX1504L2_MB.all.mb58.gz 162.28MB Kongsberg multibeam vendor format
0426_20150821_185447_EX1504L2_MB.all.mb58.gz 77.41MB Kongsberg multibeam vendor format
0427_20150821_195446_EX1504L2_MB.all.mb58.gz 74.50MB Kongsberg multibeam vendor format
0428_20150821_205448_EX1504L2_MB.all.mb58.gz 67.98MB Kongsberg multibeam vendor format
0429_20150821_215453_EX1504L2_MB.all.mb58.gz 78.13MB Kongsberg multibeam vendor format
0430_20150821_225449_EX1504L2_MB.all.mb58.gz 84.45MB Kongsberg multibeam vendor format
0432_20150822_005446_EX1504L2_MB.all.mb58.gz 169.70MB Kongsberg multibeam vendor format
0434_20150822_054858_EX1504L2_MB.all.mb58.gz 82.49MB Kongsberg multibeam vendor format
0435_20150822_064859_EX1504L2_MB.all.mb58.gz 78.48MB Kongsberg multibeam vendor format
0436_20150822_074855_EX1504L2_MB.all.mb58.gz 11.98MB Kongsberg multibeam vendor format
0437_20150822_075936_EX1504L2_MB.all.mb58.gz 66.79MB Kongsberg multibeam vendor format
0438_20150822_085928_EX1504L2_MB.all.mb58.gz 67.55MB Kongsberg multibeam vendor format
0439_20150822_095933_EX1504L2_MB.all.mb58.gz 67.38MB Kongsberg multibeam vendor format
0440_20150822_105933_EX1504L2_MB.all.mb58.gz 67.15MB Kongsberg multibeam vendor format
0441_20150822_115931_EX1504L2_MB.all.mb58.gz 67.20MB Kongsberg multibeam vendor format
0442_20150822_125931_EX1504L2_MB.all.mb58.gz 67.27MB Kongsberg multibeam vendor format
0443_20150822_135928_EX1504L2_MB.all.mb58.gz 58.16MB Kongsberg multibeam vendor format
0444_20150822_145133_EX1504L2_MB.all.mb58.gz 66.69MB Kongsberg multibeam vendor format
0445_20150822_155129_EX1504L2_MB.all.mb58.gz 66.52MB Kongsberg multibeam vendor format
0446_20150822_165125_EX1504L2_MB.all.mb58.gz 66.61MB Kongsberg multibeam vendor format
0447_20150822_175130_EX1504L2_MB.all.mb58.gz 66.77MB Kongsberg multibeam vendor format
0448_20150822_185127_EX1504L2_MB.all.mb58.gz 67.04MB Kongsberg multibeam vendor format
0449_20150822_195129_EX1504L2_MB.all.mb58.gz 67.20MB Kongsberg multibeam vendor format
0450_20150822_205132_EX1504L2_MB.all.mb58.gz 66.74MB Kongsberg multibeam vendor format
0451_20150822_215127_EX1504L2_MB.all.mb58.gz 66.89MB Kongsberg multibeam vendor format
0452_20150822_225131_EX1504L2_MB.all.mb58.gz 67.47MB Kongsberg multibeam vendor format
0453_20150822_235132_EX1504L2_MB.all.mb58.gz 67.34MB Kongsberg multibeam vendor format
0454_20150823_005127_EX1504L2_MB.all.mb58.gz 69.10MB Kongsberg multibeam vendor format
0455_20150823_015127_EX1504L2_MB.all.mb58.gz 67.46MB Kongsberg multibeam vendor format
0456_20150823_025128_EX1504L2_MB.all.mb58.gz 67.37MB Kongsberg multibeam vendor format
0457_20150823_035131_EX1504L2_MB.all.mb58.gz 67.17MB Kongsberg multibeam vendor format
0458_20150823_045126_EX1504L2_MB.all.mb58.gz 57.90MB Kongsberg multibeam vendor format
0459_20150823_054307_EX1504L2_MB.all.mb58.gz 67.21MB Kongsberg multibeam vendor format
0460_20150823_064306_EX1504L2_MB.all.mb58.gz 67.20MB Kongsberg multibeam vendor format
0461_20150823_074304_EX1504L2_MB.all.mb58.gz 27.93MB Kongsberg multibeam vendor format
0462_20150823_080800_EX1504L2_MB.all.mb58.gz 67.18MB Kongsberg multibeam vendor format
0463_20150823_090758_EX1504L2_MB.all.mb58.gz 67.17MB Kongsberg multibeam vendor format
0464_20150823_100757_EX1504L2_MB.all.mb58.gz 67.89MB Kongsberg multibeam vendor format
0465_20150823_110755_EX1504L2_MB.all.mb58.gz 73.00MB Kongsberg multibeam vendor format
0466_20150823_120755_EX1504L2_MB.all.mb58.gz 8.29MB Kongsberg multibeam vendor format
0467_20150823_121408_EX1504L2_MB.all.mb58.gz 83.05MB Kongsberg multibeam vendor format
0468_20150823_131402_EX1504L2_MB.all.mb58.gz 85.46MB Kongsberg multibeam vendor format
0469_20150823_141403_EX1504L2_MB.all.mb58.gz 82.34MB Kongsberg multibeam vendor format
0470_20150823_151407_EX1504L2_MB.all.mb58.gz 13.53MB Kongsberg multibeam vendor format
0471_20150823_152441_EX1504L2_MB.all.mb58.gz 67.18MB Kongsberg multibeam vendor format
0472_20150823_162444_EX1504L2_MB.all.mb58.gz 68.99MB Kongsberg multibeam vendor format
0473_20150823_172444_EX1504L2_MB.all.mb58.gz 69.35MB Kongsberg multibeam vendor format
0474_20150823_182443_EX1504L2_MB.all.mb58.gz 71.21MB Kongsberg multibeam vendor format
0475_20150823_192444_EX1504L2_MB.all.mb58.gz 68.54MB Kongsberg multibeam vendor format
0476_20150823_202441_EX1504L2_MB.all.mb58.gz 67.38MB Kongsberg multibeam vendor format
0477_20150823_212441_EX1504L2_MB.all.mb58.gz 67.30MB Kongsberg multibeam vendor format
0478_20150823_222441_EX1504L2_MB.all.mb58.gz 71.54MB Kongsberg multibeam vendor format
0479_20150823_232447_EX1504L2_MB.all.mb58.gz 65.26MB Kongsberg multibeam vendor format
0480_20150824_001137_EX1504L2_MB.all.mb58.gz 37.53MB Kongsberg multibeam vendor format
0481_20150824_003830_EX1504L2_MB.all.mb58.gz 84.52MB Kongsberg multibeam vendor format
0482_20150824_013826_EX1504L2_MB.all.mb58.gz 59.64MB Kongsberg multibeam vendor format

Full Resolution Bathymetry (processed): 481

Files File Size Description
0000_20150731_204451_EX1504L2_MB.gsf.mb121.gz 20.86MB SAIC Generic Sensor Format (GSF)
0001_20150731_214451_EX1504L2_MB.gsf.mb121.gz 8.27MB SAIC Generic Sensor Format (GSF)
0002_20150731_224451_EX1504L2_MB.gsf.mb121.gz 7.03MB SAIC Generic Sensor Format (GSF)
0003_20150731_234454_EX1504L2_MB.gsf.mb121.gz 6.73MB SAIC Generic Sensor Format (GSF)
0004_20150801_004456_EX1504L2_MB.gsf.mb121.gz 6.82MB SAIC Generic Sensor Format (GSF)
0005_20150801_014451_EX1504L2_MB.gsf.mb121.gz 6.80MB SAIC Generic Sensor Format (GSF)
0006_20150801_024457_EX1504L2_MB.gsf.mb121.gz 6.85MB SAIC Generic Sensor Format (GSF)
0007_20150801_034459_EX1504L2_MB.gsf.mb121.gz 6.84MB SAIC Generic Sensor Format (GSF)
0008_20150801_044451_EX1504L2_MB.gsf.mb121.gz 5.61MB SAIC Generic Sensor Format (GSF)
0009_20150801_053406_EX1504L2_MB.gsf.mb121.gz 348.6KB SAIC Generic Sensor Format (GSF)
0010_20150801_053649_EX1504L2_MB.gsf.mb121.gz 6.25MB SAIC Generic Sensor Format (GSF)
0011_20150801_063217_EX1504L2_MB.gsf.mb121.gz 7.02MB SAIC Generic Sensor Format (GSF)
0012_20150801_073219_EX1504L2_MB.gsf.mb121.gz 7.08MB SAIC Generic Sensor Format (GSF)
0013_20150801_083220_EX1504L2_MB.gsf.mb121.gz 7.09MB SAIC Generic Sensor Format (GSF)
0014_20150801_093220_EX1504L2_MB.gsf.mb121.gz 3.24MB SAIC Generic Sensor Format (GSF)
0015_20150801_095936_EX1504L2_MB.gsf.mb121.gz 6.20MB SAIC Generic Sensor Format (GSF)
0016_20150801_105259_EX1504L2_MB.gsf.mb121.gz 6.85MB SAIC Generic Sensor Format (GSF)
0017_20150801_115257_EX1504L2_MB.gsf.mb121.gz 1.71MB SAIC Generic Sensor Format (GSF)
0018_20150801_120759_EX1504L2_MB.gsf.mb121.gz 6.85MB SAIC Generic Sensor Format (GSF)
0019_20150801_130758_EX1504L2_MB.gsf.mb121.gz 6.85MB SAIC Generic Sensor Format (GSF)
0020_20150801_140803_EX1504L2_MB.gsf.mb121.gz 6.85MB SAIC Generic Sensor Format (GSF)
0021_20150801_150801_EX1504L2_MB.gsf.mb121.gz 6.81MB SAIC Generic Sensor Format (GSF)
0022_20150801_160759_EX1504L2_MB.gsf.mb121.gz 6.84MB SAIC Generic Sensor Format (GSF)
0023_20150801_170756_EX1504L2_MB.gsf.mb121.gz 1.16MB SAIC Generic Sensor Format (GSF)
0024_20150801_173141_EX1504L2_MB.gsf.mb121.gz 6.84MB SAIC Generic Sensor Format (GSF)
0025_20150801_183146_EX1504L2_MB.gsf.mb121.gz 129.7KB SAIC Generic Sensor Format (GSF)
0026_20150801_183243_EX1504L2_MB.gsf.mb121.gz 6.87MB SAIC Generic Sensor Format (GSF)
0027_20150801_193248_EX1504L2_MB.gsf.mb121.gz 6.73MB SAIC Generic Sensor Format (GSF)
0028_20150801_203249_EX1504L2_MB.gsf.mb121.gz 7.84MB SAIC Generic Sensor Format (GSF)
0029_20150801_213250_EX1504L2_MB.gsf.mb121.gz 4.61MB SAIC Generic Sensor Format (GSF)
0030_20150801_221611_EX1504L2_MB.gsf.mb121.gz 6.62MB SAIC Generic Sensor Format (GSF)
0031_20150801_231614_EX1504L2_MB.gsf.mb121.gz 6.59MB SAIC Generic Sensor Format (GSF)
0032_20150802_001617_EX1504L2_MB.gsf.mb121.gz 6.48MB SAIC Generic Sensor Format (GSF)
0033_20150802_011612_EX1504L2_MB.gsf.mb121.gz 6.60MB SAIC Generic Sensor Format (GSF)
0034_20150802_021616_EX1504L2_MB.gsf.mb121.gz 6.94MB SAIC Generic Sensor Format (GSF)
0035_20150802_031610_EX1504L2_MB.gsf.mb121.gz 7.14MB SAIC Generic Sensor Format (GSF)
0036_20150802_041615_EX1504L2_MB.gsf.mb121.gz 7.16MB SAIC Generic Sensor Format (GSF)
0037_20150802_051611_EX1504L2_MB.gsf.mb121.gz 7.19MB SAIC Generic Sensor Format (GSF)
0038_20150802_061612_EX1504L2_MB.gsf.mb121.gz 7.36MB SAIC Generic Sensor Format (GSF)
0039_20150802_071615_EX1504L2_MB.gsf.mb121.gz 1.98MB SAIC Generic Sensor Format (GSF)
0040_20150802_073155_EX1504L2_MB.gsf.mb121.gz 7.69MB SAIC Generic Sensor Format (GSF)
0041_20150802_083155_EX1504L2_MB.gsf.mb121.gz 7.90MB SAIC Generic Sensor Format (GSF)
0042_20150802_093158_EX1504L2_MB.gsf.mb121.gz 3.29MB SAIC Generic Sensor Format (GSF)
0043_20150802_094911_EX1504L2_MB.gsf.mb121.gz 0.82MB SAIC Generic Sensor Format (GSF)
0044_20150802_095324_EX1504L2_MB.gsf.mb121.gz 11.63MB SAIC Generic Sensor Format (GSF)
0045_20150802_105324_EX1504L2_MB.gsf.mb121.gz 1.29MB SAIC Generic Sensor Format (GSF)
0046_20150802_110018_EX1504L2_MB.gsf.mb121.gz 11.64MB SAIC Generic Sensor Format (GSF)
0047_20150802_120017_EX1504L2_MB.gsf.mb121.gz 1.40MB SAIC Generic Sensor Format (GSF)
0048_20150802_120726_EX1504L2_MB.gsf.mb121.gz 7.70MB SAIC Generic Sensor Format (GSF)
0049_20150802_123616_EX1504L2_MB.gsf.mb121.gz 6.71MB SAIC Generic Sensor Format (GSF)
0050_20150802_125547_EX1504L2_MB.gsf.mb121.gz 0.58MB SAIC Generic Sensor Format (GSF)
0051_20150802_125843_EX1504L2_MB.gsf.mb121.gz 2.41MB SAIC Generic Sensor Format (GSF)
0052_20150802_131112_EX1504L2_MB.gsf.mb121.gz 2.25MB SAIC Generic Sensor Format (GSF)
0053_20150802_132150_EX1504L2_MB.gsf.mb121.gz 3.02MB SAIC Generic Sensor Format (GSF)
0054_20150802_133746_EX1504L2_MB.gsf.mb121.gz 11.27MB SAIC Generic Sensor Format (GSF)
0055_20150802_143747_EX1504L2_MB.gsf.mb121.gz 11.16MB SAIC Generic Sensor Format (GSF)
0056_20150802_153458_EX1504L2_MB.gsf.mb121.gz 0.62MB SAIC Generic Sensor Format (GSF)
0057_20150802_154011_EX1504L2_MB.gsf.mb121.gz 2.69MB SAIC Generic Sensor Format (GSF)
0059_20150803_045723_EX1504L2_MB.gsf.mb121.gz 8.02MB SAIC Generic Sensor Format (GSF)
0060_20150803_055731_EX1504L2_MB.gsf.mb121.gz 6.48MB SAIC Generic Sensor Format (GSF)
0061_20150803_065728_EX1504L2_MB.gsf.mb121.gz 8.73MB SAIC Generic Sensor Format (GSF)
0062_20150803_075725_EX1504L2_MB.gsf.mb121.gz 18.59MB SAIC Generic Sensor Format (GSF)
0063_20150803_085724_EX1504L2_MB.gsf.mb121.gz 29.37MB SAIC Generic Sensor Format (GSF)
0064_20150803_095722_EX1504L2_MB.gsf.mb121.gz 23.86MB SAIC Generic Sensor Format (GSF)
0065_20150803_105728_EX1504L2_MB.gsf.mb121.gz 6.92MB SAIC Generic Sensor Format (GSF)
0066_20150803_115724_EX1504L2_MB.gsf.mb121.gz 6.55MB SAIC Generic Sensor Format (GSF)
0067_20150803_125724_EX1504L2_MB.gsf.mb121.gz 7.04MB SAIC Generic Sensor Format (GSF)
0068_20150803_135727_EX1504L2_MB.gsf.mb121.gz 5.65MB SAIC Generic Sensor Format (GSF)
0069_20150803_144605_EX1504L2_MB.gsf.mb121.gz 7.47MB SAIC Generic Sensor Format (GSF)
0070_20150803_154602_EX1504L2_MB.gsf.mb121.gz 6.29MB SAIC Generic Sensor Format (GSF)
0071_20150803_164201_EX1504L2_MB.gsf.mb121.gz 5.51MB SAIC Generic Sensor Format (GSF)
0072_20150803_173014_EX1504L2_MB.gsf.mb121.gz 3.95MB SAIC Generic Sensor Format (GSF)
0073_20150804_054919_EX1504L2_MB.gsf.mb121.gz 6.48MB SAIC Generic Sensor Format (GSF)
0074_20150804_064918_EX1504L2_MB.gsf.mb121.gz 6.64MB SAIC Generic Sensor Format (GSF)
0075_20150804_074918_EX1504L2_MB.gsf.mb121.gz 0.64MB SAIC Generic Sensor Format (GSF)
0076_20150804_075443_EX1504L2_MB.gsf.mb121.gz 6.84MB SAIC Generic Sensor Format (GSF)
0077_20150804_085437_EX1504L2_MB.gsf.mb121.gz 6.96MB SAIC Generic Sensor Format (GSF)
0078_20150804_095439_EX1504L2_MB.gsf.mb121.gz 4.65MB SAIC Generic Sensor Format (GSF)
0079_20150804_103456_EX1504L2_MB.gsf.mb121.gz 6.94MB SAIC Generic Sensor Format (GSF)
0080_20150804_113456_EX1504L2_MB.gsf.mb121.gz 6.83MB SAIC Generic Sensor Format (GSF)
0081_20150804_123316_EX1504L2_MB.gsf.mb121.gz 6.69MB SAIC Generic Sensor Format (GSF)
0082_20150804_133314_EX1504L2_MB.gsf.mb121.gz 6.32MB SAIC Generic Sensor Format (GSF)
0083_20150804_143314_EX1504L2_MB.gsf.mb121.gz 0.75MB SAIC Generic Sensor Format (GSF)
0084_20150804_144003_EX1504L2_MB.gsf.mb121.gz 6.75MB SAIC Generic Sensor Format (GSF)
0085_20150804_153957_EX1504L2_MB.gsf.mb121.gz 6.70MB SAIC Generic Sensor Format (GSF)
0086_20150805_034316_EX1504L2_MB.gsf.mb121.gz 7.95MB SAIC Generic Sensor Format (GSF)
0087_20150805_044321_EX1504L2_MB.gsf.mb121.gz 7.97MB SAIC Generic Sensor Format (GSF)
0088_20150805_054315_EX1504L2_MB.gsf.mb121.gz 17.41MB SAIC Generic Sensor Format (GSF)
0089_20150805_064316_EX1504L2_MB.gsf.mb121.gz 24.22MB SAIC Generic Sensor Format (GSF)
0090_20150805_074314_EX1504L2_MB.gsf.mb121.gz 19.38MB SAIC Generic Sensor Format (GSF)
0091_20150805_084315_EX1504L2_MB.gsf.mb121.gz 15.17MB SAIC Generic Sensor Format (GSF)
0092_20150805_094318_EX1504L2_MB.gsf.mb121.gz 12.73MB SAIC Generic Sensor Format (GSF)
0093_20150805_104315_EX1504L2_MB.gsf.mb121.gz 8.03MB SAIC Generic Sensor Format (GSF)
0094_20150805_114320_EX1504L2_MB.gsf.mb121.gz 1.12MB SAIC Generic Sensor Format (GSF)
0095_20150805_115233_EX1504L2_MB.gsf.mb121.gz 1.04MB SAIC Generic Sensor Format (GSF)
0096_20150805_120117_EX1504L2_MB.gsf.mb121.gz 7.21MB SAIC Generic Sensor Format (GSF)
0097_20150805_130121_EX1504L2_MB.gsf.mb121.gz 7.31MB SAIC Generic Sensor Format (GSF)
0098_20150805_140115_EX1504L2_MB.gsf.mb121.gz 7.35MB SAIC Generic Sensor Format (GSF)
0099_20150805_150120_EX1504L2_MB.gsf.mb121.gz 7.40MB SAIC Generic Sensor Format (GSF)
0100_20150805_160119_EX1504L2_MB.gsf.mb121.gz 7.45MB SAIC Generic Sensor Format (GSF)
0101_20150806_053337_EX1504L2_MB.gsf.mb121.gz 3.21MB SAIC Generic Sensor Format (GSF)
0102_20150806_055346_EX1504L2_MB.gsf.mb121.gz 1.59MB SAIC Generic Sensor Format (GSF)
0103_20150806_060524_EX1504L2_MB.gsf.mb121.gz 8.90MB SAIC Generic Sensor Format (GSF)
0104_20150806_070031_EX1504L2_MB.gsf.mb121.gz 6.64MB SAIC Generic Sensor Format (GSF)
0105_20150806_075349_EX1504L2_MB.gsf.mb121.gz 0.74MB SAIC Generic Sensor Format (GSF)
0106_20150806_080109_EX1504L2_MB.gsf.mb121.gz 9.64MB SAIC Generic Sensor Format (GSF)
0107_20150806_085905_EX1504L2_MB.gsf.mb121.gz 0.90MB SAIC Generic Sensor Format (GSF)
0108_20150806_090321_EX1504L2_MB.gsf.mb121.gz 9.17MB SAIC Generic Sensor Format (GSF)
0109_20150806_100318_EX1504L2_MB.gsf.mb121.gz 5.91MB SAIC Generic Sensor Format (GSF)
0110_20150806_105250_EX1504L2_MB.gsf.mb121.gz 0.63MB SAIC Generic Sensor Format (GSF)
0111_20150806_105837_EX1504L2_MB.gsf.mb121.gz 3.86MB SAIC Generic Sensor Format (GSF)
0112_20150806_113614_EX1504L2_MB.gsf.mb121.gz 0.56MB SAIC Generic Sensor Format (GSF)
0113_20150806_114059_EX1504L2_MB.gsf.mb121.gz 1.31MB SAIC Generic Sensor Format (GSF)
0114_20150806_115247_EX1504L2_MB.gsf.mb121.gz 4.44MB SAIC Generic Sensor Format (GSF)
0115_20150806_123344_EX1504L2_MB.gsf.mb121.gz 386.9KB SAIC Generic Sensor Format (GSF)
0116_20150806_123703_EX1504L2_MB.gsf.mb121.gz 1.99MB SAIC Generic Sensor Format (GSF)
0117_20150806_125510_EX1504L2_MB.gsf.mb121.gz 1.89MB SAIC Generic Sensor Format (GSF)
0118_20150806_131240_EX1504L2_MB.gsf.mb121.gz 4.89MB SAIC Generic Sensor Format (GSF)
0119_20150806_135818_EX1504L2_MB.gsf.mb121.gz 0.77MB SAIC Generic Sensor Format (GSF)
0120_20150806_140444_EX1504L2_MB.gsf.mb121.gz 1.46MB SAIC Generic Sensor Format (GSF)
0121_20150806_141710_EX1504L2_MB.gsf.mb121.gz 0.63MB SAIC Generic Sensor Format (GSF)
0122_20150806_142230_EX1504L2_MB.gsf.mb121.gz 6.65MB SAIC Generic Sensor Format (GSF)
0123_20150806_152230_EX1504L2_MB.gsf.mb121.gz 0.77MB SAIC Generic Sensor Format (GSF)
0124_20150806_152916_EX1504L2_MB.gsf.mb121.gz 3.38MB SAIC Generic Sensor Format (GSF)
0125_20150807_045029_EX1504L2_MB.gsf.mb121.gz 1.34MB SAIC Generic Sensor Format (GSF)
0126_20150807_050323_EX1504L2_MB.gsf.mb121.gz 3.21MB SAIC Generic Sensor Format (GSF)
0127_20150807_053258_EX1504L2_MB.gsf.mb121.gz 6.60MB SAIC Generic Sensor Format (GSF)
0128_20150807_063300_EX1504L2_MB.gsf.mb121.gz 3.59MB SAIC Generic Sensor Format (GSF)
0129_20150807_070548_EX1504L2_MB.gsf.mb121.gz 1.75MB SAIC Generic Sensor Format (GSF)
0130_20150807_072158_EX1504L2_MB.gsf.mb121.gz 507.3KB SAIC Generic Sensor Format (GSF)
0131_20150807_072623_EX1504L2_MB.gsf.mb121.gz 6.72MB SAIC Generic Sensor Format (GSF)
0132_20150807_082623_EX1504L2_MB.gsf.mb121.gz 0.82MB SAIC Generic Sensor Format (GSF)
0133_20150807_083330_EX1504L2_MB.gsf.mb121.gz 263.8KB SAIC Generic Sensor Format (GSF)
0134_20150807_083539_EX1504L2_MB.gsf.mb121.gz 2.86MB SAIC Generic Sensor Format (GSF)
0135_20150807_090113_EX1504L2_MB.gsf.mb121.gz 0.63MB SAIC Generic Sensor Format (GSF)
0136_20150807_090635_EX1504L2_MB.gsf.mb121.gz 6.92MB SAIC Generic Sensor Format (GSF)
0137_20150807_100637_EX1504L2_MB.gsf.mb121.gz 5.05MB SAIC Generic Sensor Format (GSF)
0138_20150807_104956_EX1504L2_MB.gsf.mb121.gz 7.01MB SAIC Generic Sensor Format (GSF)
0139_20150807_114950_EX1504L2_MB.gsf.mb121.gz 1.46MB SAIC Generic Sensor Format (GSF)
0140_20150807_120204_EX1504L2_MB.gsf.mb121.gz 7.01MB SAIC Generic Sensor Format (GSF)
0141_20150807_130201_EX1504L2_MB.gsf.mb121.gz 7.00MB SAIC Generic Sensor Format (GSF)
0142_20150807_140200_EX1504L2_MB.gsf.mb121.gz 6.97MB SAIC Generic Sensor Format (GSF)
0143_20150807_150159_EX1504L2_MB.gsf.mb121.gz 7.02MB SAIC Generic Sensor Format (GSF)
0144_20150807_160205_EX1504L2_MB.gsf.mb121.gz 7.04MB SAIC Generic Sensor Format (GSF)
0145_20150807_170159_EX1504L2_MB.gsf.mb121.gz 1.79MB SAIC Generic Sensor Format (GSF)
0146_20150807_171656_EX1504L2_MB.gsf.mb121.gz 7.20MB SAIC Generic Sensor Format (GSF)
0147_20150807_181655_EX1504L2_MB.gsf.mb121.gz 6.86MB SAIC Generic Sensor Format (GSF)
0148_20150808_050632_EX1504L2_MB.gsf.mb121.gz 5.02MB SAIC Generic Sensor Format (GSF)
0149_20150808_054829_EX1504L2_MB.gsf.mb121.gz 199.7KB SAIC Generic Sensor Format (GSF)
0150_20150808_054959_EX1504L2_MB.gsf.mb121.gz 6.66MB SAIC Generic Sensor Format (GSF)
0151_20150808_064957_EX1504L2_MB.gsf.mb121.gz 5.25MB SAIC Generic Sensor Format (GSF)
0152_20150808_073226_EX1504L2_MB.gsf.mb121.gz 4.60MB SAIC Generic Sensor Format (GSF)
0153_20150808_080947_EX1504L2_MB.gsf.mb121.gz 0.70MB SAIC Generic Sensor Format (GSF)
0154_20150808_081519_EX1504L2_MB.gsf.mb121.gz 1.25MB SAIC Generic Sensor Format (GSF)
0155_20150808_082500_EX1504L2_MB.gsf.mb121.gz 0.82MB SAIC Generic Sensor Format (GSF)
0156_20150808_083143_EX1504L2_MB.gsf.mb121.gz 6.79MB SAIC Generic Sensor Format (GSF)
0157_20150808_093136_EX1504L2_MB.gsf.mb121.gz 6.45MB SAIC Generic Sensor Format (GSF)
0158_20150808_103142_EX1504L2_MB.gsf.mb121.gz 1.88MB SAIC Generic Sensor Format (GSF)
0159_20150808_104840_EX1504L2_MB.gsf.mb121.gz 1.53MB SAIC Generic Sensor Format (GSF)
0160_20150808_110231_EX1504L2_MB.gsf.mb121.gz 2.25MB SAIC Generic Sensor Format (GSF)
0161_20150808_112225_EX1504L2_MB.gsf.mb121.gz 2.92MB SAIC Generic Sensor Format (GSF)
0162_20150808_115055_EX1504L2_MB.gsf.mb121.gz 3.27MB SAIC Generic Sensor Format (GSF)
0163_20150808_122210_EX1504L2_MB.gsf.mb121.gz 6.32MB SAIC Generic Sensor Format (GSF)
0164_20150808_132214_EX1504L2_MB.gsf.mb121.gz 6.36MB SAIC Generic Sensor Format (GSF)
0165_20150808_142216_EX1504L2_MB.gsf.mb121.gz 1.70MB SAIC Generic Sensor Format (GSF)
0166_20150808_143820_EX1504L2_MB.gsf.mb121.gz 0.65MB SAIC Generic Sensor Format (GSF)
0167_20150808_144421_EX1504L2_MB.gsf.mb121.gz 6.71MB SAIC Generic Sensor Format (GSF)
0168_20150808_154422_EX1504L2_MB.gsf.mb121.gz 1.80MB SAIC Generic Sensor Format (GSF)
0169_20150809_015136_EX1504L2_MB.gsf.mb121.gz 7.69MB SAIC Generic Sensor Format (GSF)
0170_20150809_025133_EX1504L2_MB.gsf.mb121.gz 6.41MB SAIC Generic Sensor Format (GSF)
0171_20150809_035132_EX1504L2_MB.gsf.mb121.gz 1.56MB SAIC Generic Sensor Format (GSF)
0172_20150809_040521_EX1504L2_MB.gsf.mb121.gz 318.6KB SAIC Generic Sensor Format (GSF)
0173_20150809_055753_EX1504L2_MB.gsf.mb121.gz 1.50MB SAIC Generic Sensor Format (GSF)
0174_20150809_061132_EX1504L2_MB.gsf.mb121.gz 6.76MB SAIC Generic Sensor Format (GSF)
0175_20150809_071127_EX1504L2_MB.gsf.mb121.gz 6.62MB SAIC Generic Sensor Format (GSF)
0176_20150809_081132_EX1504L2_MB.gsf.mb121.gz 6.37MB SAIC Generic Sensor Format (GSF)
0177_20150809_090833_EX1504L2_MB.gsf.mb121.gz 6.52MB SAIC Generic Sensor Format (GSF)
0178_20150809_100835_EX1504L2_MB.gsf.mb121.gz 3.27MB SAIC Generic Sensor Format (GSF)
0179_20150809_103854_EX1504L2_MB.gsf.mb121.gz 6.53MB SAIC Generic Sensor Format (GSF)
0180_20150809_113858_EX1504L2_MB.gsf.mb121.gz 0.97MB SAIC Generic Sensor Format (GSF)
0181_20150809_114743_EX1504L2_MB.gsf.mb121.gz 6.48MB SAIC Generic Sensor Format (GSF)
0182_20150809_124743_EX1504L2_MB.gsf.mb121.gz 6.55MB SAIC Generic Sensor Format (GSF)
0183_20150809_134739_EX1504L2_MB.gsf.mb121.gz 6.62MB SAIC Generic Sensor Format (GSF)
0184_20150809_144736_EX1504L2_MB.gsf.mb121.gz 6.63MB SAIC Generic Sensor Format (GSF)
0185_20150809_154742_EX1504L2_MB.gsf.mb121.gz 3.15MB SAIC Generic Sensor Format (GSF)
0186_20150809_161607_EX1504L2_MB.gsf.mb121.gz 0.70MB SAIC Generic Sensor Format (GSF)
0187_20150809_162216_EX1504L2_MB.gsf.mb121.gz 3.31MB SAIC Generic Sensor Format (GSF)
0188_20150809_165310_EX1504L2_MB.gsf.mb121.gz 0.90MB SAIC Generic Sensor Format (GSF)
0189_20150809_170127_EX1504L2_MB.gsf.mb121.gz 6.50MB SAIC Generic Sensor Format (GSF)
0190_20150809_180127_EX1504L2_MB.gsf.mb121.gz 3.67MB SAIC Generic Sensor Format (GSF)
0191_20150810_052447_EX1504L2_MB.gsf.mb121.gz 6.37MB SAIC Generic Sensor Format (GSF)
0192_20150810_062438_EX1504L2_MB.gsf.mb121.gz 6.40MB SAIC Generic Sensor Format (GSF)
0193_20150810_072440_EX1504L2_MB.gsf.mb121.gz 1.56MB SAIC Generic Sensor Format (GSF)
0194_20150810_073909_EX1504L2_MB.gsf.mb121.gz 6.42MB SAIC Generic Sensor Format (GSF)
0195_20150810_083913_EX1504L2_MB.gsf.mb121.gz 8.09MB SAIC Generic Sensor Format (GSF)
0196_20150810_092540_EX1504L2_MB.gsf.mb121.gz 3.81MB SAIC Generic Sensor Format (GSF)
0197_20150810_094601_EX1504L2_MB.gsf.mb121.gz 1.76MB SAIC Generic Sensor Format (GSF)
0198_20150810_095621_EX1504L2_MB.gsf.mb121.gz 10.08MB SAIC Generic Sensor Format (GSF)
0199_20150810_104712_EX1504L2_MB.gsf.mb121.gz 1.70MB SAIC Generic Sensor Format (GSF)
0200_20150810_105544_EX1504L2_MB.gsf.mb121.gz 0.68MB SAIC Generic Sensor Format (GSF)
0201_20150810_105907_EX1504L2_MB.gsf.mb121.gz 3.46MB SAIC Generic Sensor Format (GSF)
0202_20150810_111642_EX1504L2_MB.gsf.mb121.gz 0.71MB SAIC Generic Sensor Format (GSF)
0203_20150810_112021_EX1504L2_MB.gsf.mb121.gz 5.62MB SAIC Generic Sensor Format (GSF)
0204_20150810_114819_EX1504L2_MB.gsf.mb121.gz 1.69MB SAIC Generic Sensor Format (GSF)
0205_20150810_115735_EX1504L2_MB.gsf.mb121.gz 2.88MB SAIC Generic Sensor Format (GSF)
0206_20150810_121419_EX1504L2_MB.gsf.mb121.gz 334.2KB SAIC Generic Sensor Format (GSF)
0207_20150810_121602_EX1504L2_MB.gsf.mb121.gz 9.08MB SAIC Generic Sensor Format (GSF)
0208_20150810_130943_EX1504L2_MB.gsf.mb121.gz 0.70MB SAIC Generic Sensor Format (GSF)
0209_20150810_131355_EX1504L2_MB.gsf.mb121.gz 5.47MB SAIC Generic Sensor Format (GSF)
0210_20150810_134326_EX1504L2_MB.gsf.mb121.gz 0.75MB SAIC Generic Sensor Format (GSF)
0211_20150810_134608_EX1504L2_MB.gsf.mb121.gz 4.62MB SAIC Generic Sensor Format (GSF)
0212_20150810_140430_EX1504L2_MB.gsf.mb121.gz 1.12MB SAIC Generic Sensor Format (GSF)
0213_20150810_141004_EX1504L2_MB.gsf.mb121.gz 8.93MB SAIC Generic Sensor Format (GSF)
0214_20150810_144956_EX1504L2_MB.gsf.mb121.gz 0.55MB SAIC Generic Sensor Format (GSF)
0215_20150810_145306_EX1504L2_MB.gsf.mb121.gz 7.67MB SAIC Generic Sensor Format (GSF)
0216_20150810_155259_EX1504L2_MB.gsf.mb121.gz 3.48MB SAIC Generic Sensor Format (GSF)
0217_20150811_034000_EX1504L2_MB.gsf.mb121.gz 9.48MB SAIC Generic Sensor Format (GSF)
0218_20150811_043953_EX1504L2_MB.gsf.mb121.gz 92.1KB SAIC Generic Sensor Format (GSF)
0219_20150811_044005_EX1504L2_MB.gsf.mb121.gz 1.78MB SAIC Generic Sensor Format (GSF)
0220_20150811_044810_EX1504L2_MB.gsf.mb121.gz 8.91MB SAIC Generic Sensor Format (GSF)
0221_20150811_053113_EX1504L2_MB.gsf.mb121.gz 2.21MB SAIC Generic Sensor Format (GSF)
0222_20150811_054111_EX1504L2_MB.gsf.mb121.gz 2.17MB SAIC Generic Sensor Format (GSF)
0223_20150811_054908_EX1504L2_MB.gsf.mb121.gz 2.91MB SAIC Generic Sensor Format (GSF)
0224_20150811_060334_EX1504L2_MB.gsf.mb121.gz 1.15MB SAIC Generic Sensor Format (GSF)
0225_20150811_060843_EX1504L2_MB.gsf.mb121.gz 1.93MB SAIC Generic Sensor Format (GSF)
0226_20150811_061858_EX1504L2_MB.gsf.mb121.gz 5.98MB SAIC Generic Sensor Format (GSF)
0227_20150811_064615_EX1504L2_MB.gsf.mb121.gz 1.29MB SAIC Generic Sensor Format (GSF)
0228_20150811_065309_EX1504L2_MB.gsf.mb121.gz 10.61MB SAIC Generic Sensor Format (GSF)
0229_20150811_075310_EX1504L2_MB.gsf.mb121.gz 13.59MB SAIC Generic Sensor Format (GSF)
0230_20150811_085059_EX1504L2_MB.gsf.mb121.gz 1.64MB SAIC Generic Sensor Format (GSF)
0231_20150811_085824_EX1504L2_MB.gsf.mb121.gz 0.77MB SAIC Generic Sensor Format (GSF)
0232_20150811_090231_EX1504L2_MB.gsf.mb121.gz 6.15MB SAIC Generic Sensor Format (GSF)
0233_20150811_094315_EX1504L2_MB.gsf.mb121.gz 2.58MB SAIC Generic Sensor Format (GSF)
0234_20150811_100647_EX1504L2_MB.gsf.mb121.gz 4.93MB SAIC Generic Sensor Format (GSF)
0235_20150811_104110_EX1504L2_MB.gsf.mb121.gz 3.45MB SAIC Generic Sensor Format (GSF)
0236_20150811_110218_EX1504L2_MB.gsf.mb121.gz 2.48MB SAIC Generic Sensor Format (GSF)
0237_20150811_112132_EX1504L2_MB.gsf.mb121.gz 0.85MB SAIC Generic Sensor Format (GSF)
0238_20150811_112840_EX1504L2_MB.gsf.mb121.gz 5.04MB SAIC Generic Sensor Format (GSF)
0239_20150811_120919_EX1504L2_MB.gsf.mb121.gz 1.43MB SAIC Generic Sensor Format (GSF)
0240_20150811_121907_EX1504L2_MB.gsf.mb121.gz 3.53MB SAIC Generic Sensor Format (GSF)
0240_20150811_130519_EX1504L2_MB.gsf.mb121.gz 0.50MB SAIC Generic Sensor Format (GSF)
0241_20150811_130946_EX1504L2_MB.gsf.mb121.gz 5.35MB SAIC Generic Sensor Format (GSF)
0242_20150811_140054_EX1504L2_MB.gsf.mb121.gz 2.59MB SAIC Generic Sensor Format (GSF)
0243_20150811_142501_EX1504L2_MB.gsf.mb121.gz 1.13MB SAIC Generic Sensor Format (GSF)
0244_20150811_143522_EX1504L2_MB.gsf.mb121.gz 121.8KB SAIC Generic Sensor Format (GSF)
0245_20150811_143620_EX1504L2_MB.gsf.mb121.gz 1.69MB SAIC Generic Sensor Format (GSF)
0246_20150811_145203_EX1504L2_MB.gsf.mb121.gz 4.54MB SAIC Generic Sensor Format (GSF)
0247_20150811_153351_EX1504L2_MB.gsf.mb121.gz 0.71MB SAIC Generic Sensor Format (GSF)
0248_20150811_153949_EX1504L2_MB.gsf.mb121.gz 0.66MB SAIC Generic Sensor Format (GSF)
0249_20150811_154524_EX1504L2_MB.gsf.mb121.gz 1.74MB SAIC Generic Sensor Format (GSF)
0250_20150811_155948_EX1504L2_MB.gsf.mb121.gz 2.53MB SAIC Generic Sensor Format (GSF)
0251_20150812_032547_EX1504L2_MB.gsf.mb121.gz 6.46MB SAIC Generic Sensor Format (GSF)
0252_20150812_040332_EX1504L2_MB.gsf.mb121.gz 4.12MB SAIC Generic Sensor Format (GSF)
0253_20150812_043420_EX1504L2_MB.gsf.mb121.gz 191.5KB SAIC Generic Sensor Format (GSF)
0254_20150812_043549_EX1504L2_MB.gsf.mb121.gz 3.09MB SAIC Generic Sensor Format (GSF)
0255_20150812_050510_EX1504L2_MB.gsf.mb121.gz 1.95MB SAIC Generic Sensor Format (GSF)
0256_20150812_052310_EX1504L2_MB.gsf.mb121.gz 0.87MB SAIC Generic Sensor Format (GSF)
0257_20150812_053107_EX1504L2_MB.gsf.mb121.gz 8.64MB SAIC Generic Sensor Format (GSF)
0258_20150812_062317_EX1504L2_MB.gsf.mb121.gz 384.4KB SAIC Generic Sensor Format (GSF)
0259_20150812_062504_EX1504L2_MB.gsf.mb121.gz 7.97MB SAIC Generic Sensor Format (GSF)
0260_20150812_070650_EX1504L2_MB.gsf.mb121.gz 6.47MB SAIC Generic Sensor Format (GSF)
0261_20150812_074257_EX1504L2_MB.gsf.mb121.gz 7.40MB SAIC Generic Sensor Format (GSF)
0262_20150812_082102_EX1504L2_MB.gsf.mb121.gz 4.70MB SAIC Generic Sensor Format (GSF)
0263_20150812_084922_EX1504L2_MB.gsf.mb121.gz 10.62MB SAIC Generic Sensor Format (GSF)
0264_20150812_094916_EX1504L2_MB.gsf.mb121.gz 1.08MB SAIC Generic Sensor Format (GSF)
0265_20150812_095527_EX1504L2_MB.gsf.mb121.gz 0.51MB SAIC Generic Sensor Format (GSF)
0266_20150812_095815_EX1504L2_MB.gsf.mb121.gz 4.07MB SAIC Generic Sensor Format (GSF)
0267_20150812_102536_EX1504L2_MB.gsf.mb121.gz 3.18MB SAIC Generic Sensor Format (GSF)
0268_20150812_105433_EX1504L2_MB.gsf.mb121.gz 1.18MB SAIC Generic Sensor Format (GSF)
0269_20150812_142624_EX1504L2_MB.gsf.mb121.gz 6.45MB SAIC Generic Sensor Format (GSF)
0270_20150812_152621_EX1504L2_MB.gsf.mb121.gz 5.48MB SAIC Generic Sensor Format (GSF)
0271_20150813_032001_EX1504L2_MB.gsf.mb121.gz 3.05MB SAIC Generic Sensor Format (GSF)
0272_20150813_035622_EX1504L2_MB.gsf.mb121.gz 3.61MB SAIC Generic Sensor Format (GSF)
0273_20150813_042836_EX1504L2_MB.gsf.mb121.gz 0.73MB SAIC Generic Sensor Format (GSF)
0274_20150813_043504_EX1504L2_MB.gsf.mb121.gz 0.50MB SAIC Generic Sensor Format (GSF)
0275_20150813_043926_EX1504L2_MB.gsf.mb121.gz 5.64MB SAIC Generic Sensor Format (GSF)
0276_20150813_053132_EX1504L2_MB.gsf.mb121.gz 4.57MB SAIC Generic Sensor Format (GSF)
0277_20150813_061243_EX1504L2_MB.gsf.mb121.gz 2.20MB SAIC Generic Sensor Format (GSF)
0278_20150813_063231_EX1504L2_MB.gsf.mb121.gz 1.04MB SAIC Generic Sensor Format (GSF)
0279_20150813_064226_EX1504L2_MB.gsf.mb121.gz 6.36MB SAIC Generic Sensor Format (GSF)
0280_20150813_074227_EX1504L2_MB.gsf.mb121.gz 5.49MB SAIC Generic Sensor Format (GSF)
0281_20150813_083354_EX1504L2_MB.gsf.mb121.gz 3.55MB SAIC Generic Sensor Format (GSF)
0282_20150813_090627_EX1504L2_MB.gsf.mb121.gz 423.1KB SAIC Generic Sensor Format (GSF)
0283_20150813_091002_EX1504L2_MB.gsf.mb121.gz 0.93MB SAIC Generic Sensor Format (GSF)
0284_20150813_091843_EX1504L2_MB.gsf.mb121.gz 6.25MB SAIC Generic Sensor Format (GSF)
0285_20150813_101814_EX1504L2_MB.gsf.mb121.gz 3.23MB SAIC Generic Sensor Format (GSF)
0286_20150813_104910_EX1504L2_MB.gsf.mb121.gz 2.92MB SAIC Generic Sensor Format (GSF)
0287_20150813_111718_EX1504L2_MB.gsf.mb121.gz 2.75MB SAIC Generic Sensor Format (GSF)
0288_20150813_114349_EX1504L2_MB.gsf.mb121.gz 6.29MB SAIC Generic Sensor Format (GSF)
0289_20150813_124346_EX1504L2_MB.gsf.mb121.gz 1.02MB SAIC Generic Sensor Format (GSF)
0290_20150813_125313_EX1504L2_MB.gsf.mb121.gz 4.13MB SAIC Generic Sensor Format (GSF)
0291_20150813_133131_EX1504L2_MB.gsf.mb121.gz 1.96MB SAIC Generic Sensor Format (GSF)
0292_20150813_135005_EX1504L2_MB.gsf.mb121.gz 6.27MB SAIC Generic Sensor Format (GSF)
0293_20150813_145004_EX1504L2_MB.gsf.mb121.gz 3.35MB SAIC Generic Sensor Format (GSF)
0294_20150813_152218_EX1504L2_MB.gsf.mb121.gz 3.88MB SAIC Generic Sensor Format (GSF)
0295_20150814_054409_EX1504L2_MB.gsf.mb121.gz 6.18MB SAIC Generic Sensor Format (GSF)
0296_20150814_064401_EX1504L2_MB.gsf.mb121.gz 3.35MB SAIC Generic Sensor Format (GSF)
0297_20150815_020236_EX1504L2_MB.gsf.mb121.gz 6.82MB SAIC Generic Sensor Format (GSF)
0298_20150815_030243_EX1504L2_MB.gsf.mb121.gz 5.38MB SAIC Generic Sensor Format (GSF)
0299_20150815_035211_EX1504L2_MB.gsf.mb121.gz 5.75MB SAIC Generic Sensor Format (GSF)
0300_20150815_044350_EX1504L2_MB.gsf.mb121.gz 6.27MB SAIC Generic Sensor Format (GSF)
0301_20150815_054348_EX1504L2_MB.gsf.mb121.gz 0.81MB SAIC Generic Sensor Format (GSF)
0302_20150815_055118_EX1504L2_MB.gsf.mb121.gz 6.22MB SAIC Generic Sensor Format (GSF)
0303_20150815_065112_EX1504L2_MB.gsf.mb121.gz 6.29MB SAIC Generic Sensor Format (GSF)
0304_20150815_075118_EX1504L2_MB.gsf.mb121.gz 6.74MB SAIC Generic Sensor Format (GSF)
0305_20150815_085111_EX1504L2_MB.gsf.mb121.gz 6.75MB SAIC Generic Sensor Format (GSF)
0306_20150815_095114_EX1504L2_MB.gsf.mb121.gz 6.74MB SAIC Generic Sensor Format (GSF)
0307_20150815_105115_EX1504L2_MB.gsf.mb121.gz 5.95MB SAIC Generic Sensor Format (GSF)
0308_20150815_114313_EX1504L2_MB.gsf.mb121.gz 6.85MB SAIC Generic Sensor Format (GSF)
0309_20150815_124301_EX1504L2_MB.gsf.mb121.gz 6.81MB SAIC Generic Sensor Format (GSF)
0310_20150815_134302_EX1504L2_MB.gsf.mb121.gz 6.92MB SAIC Generic Sensor Format (GSF)
0311_20150815_144304_EX1504L2_MB.gsf.mb121.gz 6.37MB SAIC Generic Sensor Format (GSF)
0312_20150815_153856_EX1504L2_MB.gsf.mb121.gz 3.86MB SAIC Generic Sensor Format (GSF)
0313_20150816_032538_EX1504L2_MB.gsf.mb121.gz 8.08MB SAIC Generic Sensor Format (GSF)
0314_20150816_042545_EX1504L2_MB.gsf.mb121.gz 6.41MB SAIC Generic Sensor Format (GSF)
0315_20150816_052539_EX1504L2_MB.gsf.mb121.gz 6.48MB SAIC Generic Sensor Format (GSF)
0316_20150816_062537_EX1504L2_MB.gsf.mb121.gz 6.50MB SAIC Generic Sensor Format (GSF)
0317_20150816_072545_EX1504L2_MB.gsf.mb121.gz 6.51MB SAIC Generic Sensor Format (GSF)
0318_20150816_082541_EX1504L2_MB.gsf.mb121.gz 4.68MB SAIC Generic Sensor Format (GSF)
0319_20150816_090831_EX1504L2_MB.gsf.mb121.gz 6.58MB SAIC Generic Sensor Format (GSF)
0320_20150816_100829_EX1504L2_MB.gsf.mb121.gz 6.52MB SAIC Generic Sensor Format (GSF)
0321_20150816_110824_EX1504L2_MB.gsf.mb121.gz 2.24MB SAIC Generic Sensor Format (GSF)
0322_20150816_112705_EX1504L2_MB.gsf.mb121.gz 2.60MB SAIC Generic Sensor Format (GSF)
0323_20150816_114510_EX1504L2_MB.gsf.mb121.gz 0.83MB SAIC Generic Sensor Format (GSF)
0324_20150816_115020_EX1504L2_MB.gsf.mb121.gz 8.09MB SAIC Generic Sensor Format (GSF)
0325_20150816_125007_EX1504L2_MB.gsf.mb121.gz 7.15MB SAIC Generic Sensor Format (GSF)
0326_20150816_135015_EX1504L2_MB.gsf.mb121.gz 6.65MB SAIC Generic Sensor Format (GSF)
0327_20150816_145011_EX1504L2_MB.gsf.mb121.gz 7.06MB SAIC Generic Sensor Format (GSF)
0328_20150816_155013_EX1504L2_MB.gsf.mb121.gz 0.67MB SAIC Generic Sensor Format (GSF)
0329_20150816_155324_EX1504L2_MB.gsf.mb121.gz 1.98MB SAIC Generic Sensor Format (GSF)
0330_20150817_032054_EX1504L2_MB.gsf.mb121.gz 15.96MB SAIC Generic Sensor Format (GSF)
0331_20150817_042052_EX1504L2_MB.gsf.mb121.gz 12.57MB SAIC Generic Sensor Format (GSF)
0332_20150817_052057_EX1504L2_MB.gsf.mb121.gz 10.93MB SAIC Generic Sensor Format (GSF)
0333_20150817_062056_EX1504L2_MB.gsf.mb121.gz 9.81MB SAIC Generic Sensor Format (GSF)
0334_20150817_072057_EX1504L2_MB.gsf.mb121.gz 6.79MB SAIC Generic Sensor Format (GSF)
0335_20150817_082054_EX1504L2_MB.gsf.mb121.gz 6.64MB SAIC Generic Sensor Format (GSF)
0336_20150817_092053_EX1504L2_MB.gsf.mb121.gz 6.64MB SAIC Generic Sensor Format (GSF)
0337_20150817_102057_EX1504L2_MB.gsf.mb121.gz 2.89MB SAIC Generic Sensor Format (GSF)
0338_20150817_105009_EX1504L2_MB.gsf.mb121.gz 7.10MB SAIC Generic Sensor Format (GSF)
0339_20150817_114536_EX1504L2_MB.gsf.mb121.gz 11.93MB SAIC Generic Sensor Format (GSF)
0340_20150817_124533_EX1504L2_MB.gsf.mb121.gz 14.94MB SAIC Generic Sensor Format (GSF)
0341_20150817_134532_EX1504L2_MB.gsf.mb121.gz 6.92MB SAIC Generic Sensor Format (GSF)
0342_20150817_144532_EX1504L2_MB.gsf.mb121.gz 10.90MB SAIC Generic Sensor Format (GSF)
0343_20150817_154533_EX1504L2_MB.gsf.mb121.gz 5.53MB SAIC Generic Sensor Format (GSF)
0344_20150818_033835_EX1504L2_MB.gsf.mb121.gz 12.65MB SAIC Generic Sensor Format (GSF)
0345_20150818_043834_EX1504L2_MB.gsf.mb121.gz 11.36MB SAIC Generic Sensor Format (GSF)
0346_20150818_053834_EX1504L2_MB.gsf.mb121.gz 7.70MB SAIC Generic Sensor Format (GSF)
0347_20150818_063840_EX1504L2_MB.gsf.mb121.gz 6.54MB SAIC Generic Sensor Format (GSF)
0348_20150818_073840_EX1504L2_MB.gsf.mb121.gz 6.38MB SAIC Generic Sensor Format (GSF)
0349_20150818_083835_EX1504L2_MB.gsf.mb121.gz 5.68MB SAIC Generic Sensor Format (GSF)
0350_20150818_093023_EX1504L2_MB.gsf.mb121.gz 0.93MB SAIC Generic Sensor Format (GSF)
0351_20150818_093855_EX1504L2_MB.gsf.mb121.gz 6.54MB SAIC Generic Sensor Format (GSF)
0352_20150818_103855_EX1504L2_MB.gsf.mb121.gz 6.46MB SAIC Generic Sensor Format (GSF)
0353_20150818_113850_EX1504L2_MB.gsf.mb121.gz 0.57MB SAIC Generic Sensor Format (GSF)
0354_20150818_114348_EX1504L2_MB.gsf.mb121.gz 2.71MB SAIC Generic Sensor Format (GSF)
0355_20150818_120944_EX1504L2_MB.gsf.mb121.gz 2.81MB SAIC Generic Sensor Format (GSF)
0356_20150818_123659_EX1504L2_MB.gsf.mb121.gz 444.8KB SAIC Generic Sensor Format (GSF)
0357_20150818_124055_EX1504L2_MB.gsf.mb121.gz 6.32MB SAIC Generic Sensor Format (GSF)
0358_20150818_134052_EX1504L2_MB.gsf.mb121.gz 6.53MB SAIC Generic Sensor Format (GSF)
0359_20150818_144002_EX1504L2_MB.gsf.mb121.gz 4.26MB SAIC Generic Sensor Format (GSF)
0360_20150818_151718_EX1504L2_MB.gsf.mb121.gz 3.04MB SAIC Generic Sensor Format (GSF)
0361_20150818_154009_EX1504L2_MB.gsf.mb121.gz 1.97MB SAIC Generic Sensor Format (GSF)
0362_20150818_155209_EX1504L2_MB.gsf.mb121.gz 3.57MB SAIC Generic Sensor Format (GSF)
0363_20150819_053713_EX1504L2_MB.gsf.mb121.gz 6.46MB SAIC Generic Sensor Format (GSF)
0364_20150819_063713_EX1504L2_MB.gsf.mb121.gz 4.22MB SAIC Generic Sensor Format (GSF)
0365_20150819_071555_EX1504L2_MB.gsf.mb121.gz 6.73MB SAIC Generic Sensor Format (GSF)
0366_20150819_081558_EX1504L2_MB.gsf.mb121.gz 8.43MB SAIC Generic Sensor Format (GSF)
0367_20150819_091554_EX1504L2_MB.gsf.mb121.gz 2.03MB SAIC Generic Sensor Format (GSF)
0368_20150819_093359_EX1504L2_MB.gsf.mb121.gz 0.56MB SAIC Generic Sensor Format (GSF)
0369_20150819_093850_EX1504L2_MB.gsf.mb121.gz 6.55MB SAIC Generic Sensor Format (GSF)
0370_20150819_103855_EX1504L2_MB.gsf.mb121.gz 2.49MB SAIC Generic Sensor Format (GSF)
0371_20150819_110208_EX1504L2_MB.gsf.mb121.gz 6.36MB SAIC Generic Sensor Format (GSF)
0372_20150819_120156_EX1504L2_MB.gsf.mb121.gz 6.73MB SAIC Generic Sensor Format (GSF)
0373_20150819_130153_EX1504L2_MB.gsf.mb121.gz 6.77MB SAIC Generic Sensor Format (GSF)
0374_20150819_140156_EX1504L2_MB.gsf.mb121.gz 6.72MB SAIC Generic Sensor Format (GSF)
0375_20150819_150159_EX1504L2_MB.gsf.mb121.gz 6.85MB SAIC Generic Sensor Format (GSF)
0376_20150819_160153_EX1504L2_MB.gsf.mb121.gz 6.86MB SAIC Generic Sensor Format (GSF)
0377_20150819_170158_EX1504L2_MB.gsf.mb121.gz 6.71MB SAIC Generic Sensor Format (GSF)
0378_20150819_180200_EX1504L2_MB.gsf.mb121.gz 6.70MB SAIC Generic Sensor Format (GSF)
0379_20150819_190154_EX1504L2_MB.gsf.mb121.gz 3.72MB SAIC Generic Sensor Format (GSF)
0380_20150819_193413_EX1504L2_MB.gsf.mb121.gz 6.89MB SAIC Generic Sensor Format (GSF)
0381_20150819_203414_EX1504L2_MB.gsf.mb121.gz 6.98MB SAIC Generic Sensor Format (GSF)
0382_20150819_213407_EX1504L2_MB.gsf.mb121.gz 7.03MB SAIC Generic Sensor Format (GSF)
0383_20150819_223407_EX1504L2_MB.gsf.mb121.gz 7.03MB SAIC Generic Sensor Format (GSF)
0384_20150819_233409_EX1504L2_MB.gsf.mb121.gz 6.60MB SAIC Generic Sensor Format (GSF)
0385_20150820_003410_EX1504L2_MB.gsf.mb121.gz 6.65MB SAIC Generic Sensor Format (GSF)
0386_20150820_013411_EX1504L2_MB.gsf.mb121.gz 6.78MB SAIC Generic Sensor Format (GSF)
0387_20150820_023257_EX1504L2_MB.gsf.mb121.gz 3.97MB SAIC Generic Sensor Format (GSF)
0388_20150820_025509_EX1504L2_MB.gsf.mb121.gz 4.36MB SAIC Generic Sensor Format (GSF)
0389_20150820_032408_EX1504L2_MB.gsf.mb121.gz 1.69MB SAIC Generic Sensor Format (GSF)
0390_20150820_033422_EX1504L2_MB.gsf.mb121.gz 9.48MB SAIC Generic Sensor Format (GSF)
0391_20150820_042730_EX1504L2_MB.gsf.mb121.gz 2.78MB SAIC Generic Sensor Format (GSF)
0392_20150820_044413_EX1504L2_MB.gsf.mb121.gz 7.84MB SAIC Generic Sensor Format (GSF)
0393_20150820_054412_EX1504L2_MB.gsf.mb121.gz 6.80MB SAIC Generic Sensor Format (GSF)
0394_20150820_064410_EX1504L2_MB.gsf.mb121.gz 6.89MB SAIC Generic Sensor Format (GSF)
0395_20150820_074411_EX1504L2_MB.gsf.mb121.gz 5.15MB SAIC Generic Sensor Format (GSF)
0396_20150820_082858_EX1504L2_MB.gsf.mb121.gz 6.56MB SAIC Generic Sensor Format (GSF)
0397_20150820_092900_EX1504L2_MB.gsf.mb121.gz 6.54MB SAIC Generic Sensor Format (GSF)
0398_20150820_102859_EX1504L2_MB.gsf.mb121.gz 4.57MB SAIC Generic Sensor Format (GSF)
0399_20150820_111037_EX1504L2_MB.gsf.mb121.gz 6.70MB SAIC Generic Sensor Format (GSF)
0400_20150820_121037_EX1504L2_MB.gsf.mb121.gz 0.96MB SAIC Generic Sensor Format (GSF)
0401_20150820_121852_EX1504L2_MB.gsf.mb121.gz 4.82MB SAIC Generic Sensor Format (GSF)
0402_20150820_130151_EX1504L2_MB.gsf.mb121.gz 7.56MB SAIC Generic Sensor Format (GSF)
0403_20150820_140151_EX1504L2_MB.gsf.mb121.gz 6.77MB SAIC Generic Sensor Format (GSF)
0404_20150820_144844_EX1504L2_MB.gsf.mb121.gz 0.95MB SAIC Generic Sensor Format (GSF)
0405_20150820_145644_EX1504L2_MB.gsf.mb121.gz 7.22MB SAIC Generic Sensor Format (GSF)
0406_20150820_155646_EX1504L2_MB.gsf.mb121.gz 2.07MB SAIC Generic Sensor Format (GSF)
0407_20150821_015649_EX1504L2_MB.gsf.mb121.gz 9.89MB SAIC Generic Sensor Format (GSF)
0408_20150821_025651_EX1504L2_MB.gsf.mb121.gz 10.18MB SAIC Generic Sensor Format (GSF)
0409_20150821_035648_EX1504L2_MB.gsf.mb121.gz 3.34MB SAIC Generic Sensor Format (GSF)
0410_20150821_041543_EX1504L2_MB.gsf.mb121.gz 3.14MB SAIC Generic Sensor Format (GSF)
0411_20150821_043231_EX1504L2_MB.gsf.mb121.gz 4.85MB SAIC Generic Sensor Format (GSF)
0412_20150821_045843_EX1504L2_MB.gsf.mb121.gz 10.40MB SAIC Generic Sensor Format (GSF)
0413_20150821_055847_EX1504L2_MB.gsf.mb121.gz 12.99MB SAIC Generic Sensor Format (GSF)
0414_20150821_065842_EX1504L2_MB.gsf.mb121.gz 20.21MB SAIC Generic Sensor Format (GSF)
0415_20150821_075841_EX1504L2_MB.gsf.mb121.gz 10.18MB SAIC Generic Sensor Format (GSF)
0416_20150821_085452_EX1504L2_MB.gsf.mb121.gz 10.20MB SAIC Generic Sensor Format (GSF)
0417_20150821_095448_EX1504L2_MB.gsf.mb121.gz 6.93MB SAIC Generic Sensor Format (GSF)
0418_20150821_105453_EX1504L2_MB.gsf.mb121.gz 6.75MB SAIC Generic Sensor Format (GSF)
0419_20150821_115446_EX1504L2_MB.gsf.mb121.gz 6.81MB SAIC Generic Sensor Format (GSF)
0420_20150821_125448_EX1504L2_MB.gsf.mb121.gz 6.59MB SAIC Generic Sensor Format (GSF)
0421_20150821_135451_EX1504L2_MB.gsf.mb121.gz 6.47MB SAIC Generic Sensor Format (GSF)
0422_20150821_145452_EX1504L2_MB.gsf.mb121.gz 6.38MB SAIC Generic Sensor Format (GSF)
0423_20150821_155448_EX1504L2_MB.gsf.mb121.gz 10.19MB SAIC Generic Sensor Format (GSF)
0424_20150821_165450_EX1504L2_MB.gsf.mb121.gz 22.54MB SAIC Generic Sensor Format (GSF)
0425_20150821_175447_EX1504L2_MB.gsf.mb121.gz 29.02MB SAIC Generic Sensor Format (GSF)
0426_20150821_185447_EX1504L2_MB.gsf.mb121.gz 9.57MB SAIC Generic Sensor Format (GSF)
0427_20150821_195446_EX1504L2_MB.gsf.mb121.gz 8.62MB SAIC Generic Sensor Format (GSF)
0428_20150821_205448_EX1504L2_MB.gsf.mb121.gz 6.78MB SAIC Generic Sensor Format (GSF)
0429_20150821_215453_EX1504L2_MB.gsf.mb121.gz 9.84MB SAIC Generic Sensor Format (GSF)
0430_20150821_225449_EX1504L2_MB.gsf.mb121.gz 11.61MB SAIC Generic Sensor Format (GSF)
0432_20150822_005446_EX1504L2_MB.gsf.mb121.gz 29.03MB SAIC Generic Sensor Format (GSF)
0434_20150822_054858_EX1504L2_MB.gsf.mb121.gz 11.17MB SAIC Generic Sensor Format (GSF)
0435_20150822_064859_EX1504L2_MB.gsf.mb121.gz 10.06MB SAIC Generic Sensor Format (GSF)
0436_20150822_074855_EX1504L2_MB.gsf.mb121.gz 1.23MB SAIC Generic Sensor Format (GSF)
0437_20150822_075936_EX1504L2_MB.gsf.mb121.gz 6.78MB SAIC Generic Sensor Format (GSF)
0438_20150822_085928_EX1504L2_MB.gsf.mb121.gz 7.05MB SAIC Generic Sensor Format (GSF)
0439_20150822_095933_EX1504L2_MB.gsf.mb121.gz 6.93MB SAIC Generic Sensor Format (GSF)
0440_20150822_105933_EX1504L2_MB.gsf.mb121.gz 6.75MB SAIC Generic Sensor Format (GSF)
0441_20150822_115931_EX1504L2_MB.gsf.mb121.gz 6.57MB SAIC Generic Sensor Format (GSF)
0442_20150822_125931_EX1504L2_MB.gsf.mb121.gz 6.70MB SAIC Generic Sensor Format (GSF)
0443_20150822_135928_EX1504L2_MB.gsf.mb121.gz 5.77MB SAIC Generic Sensor Format (GSF)
0444_20150822_145133_EX1504L2_MB.gsf.mb121.gz 6.47MB SAIC Generic Sensor Format (GSF)
0445_20150822_155129_EX1504L2_MB.gsf.mb121.gz 6.50MB SAIC Generic Sensor Format (GSF)
0446_20150822_165125_EX1504L2_MB.gsf.mb121.gz 6.63MB SAIC Generic Sensor Format (GSF)
0447_20150822_175130_EX1504L2_MB.gsf.mb121.gz 6.80MB SAIC Generic Sensor Format (GSF)
0448_20150822_185127_EX1504L2_MB.gsf.mb121.gz 6.87MB SAIC Generic Sensor Format (GSF)
0449_20150822_195129_EX1504L2_MB.gsf.mb121.gz 6.88MB SAIC Generic Sensor Format (GSF)
0450_20150822_205132_EX1504L2_MB.gsf.mb121.gz 6.80MB SAIC Generic Sensor Format (GSF)
0451_20150822_215127_EX1504L2_MB.gsf.mb121.gz 6.83MB SAIC Generic Sensor Format (GSF)
0452_20150822_225131_EX1504L2_MB.gsf.mb121.gz 7.05MB SAIC Generic Sensor Format (GSF)
0453_20150822_235132_EX1504L2_MB.gsf.mb121.gz 6.86MB SAIC Generic Sensor Format (GSF)
0454_20150823_005127_EX1504L2_MB.gsf.mb121.gz 7.39MB SAIC Generic Sensor Format (GSF)
0455_20150823_015127_EX1504L2_MB.gsf.mb121.gz 7.15MB SAIC Generic Sensor Format (GSF)
0456_20150823_025128_EX1504L2_MB.gsf.mb121.gz 7.07MB SAIC Generic Sensor Format (GSF)
0457_20150823_035131_EX1504L2_MB.gsf.mb121.gz 7.02MB SAIC Generic Sensor Format (GSF)
0458_20150823_045126_EX1504L2_MB.gsf.mb121.gz 6.01MB SAIC Generic Sensor Format (GSF)
0459_20150823_054307_EX1504L2_MB.gsf.mb121.gz 6.98MB SAIC Generic Sensor Format (GSF)
0460_20150823_064306_EX1504L2_MB.gsf.mb121.gz 6.98MB SAIC Generic Sensor Format (GSF)
0461_20150823_074304_EX1504L2_MB.gsf.mb121.gz 2.92MB SAIC Generic Sensor Format (GSF)
0462_20150823_080800_EX1504L2_MB.gsf.mb121.gz 6.97MB SAIC Generic Sensor Format (GSF)
0463_20150823_090758_EX1504L2_MB.gsf.mb121.gz 6.98MB SAIC Generic Sensor Format (GSF)
0464_20150823_100757_EX1504L2_MB.gsf.mb121.gz 7.24MB SAIC Generic Sensor Format (GSF)
0465_20150823_110755_EX1504L2_MB.gsf.mb121.gz 8.73MB SAIC Generic Sensor Format (GSF)
0466_20150823_120755_EX1504L2_MB.gsf.mb121.gz 1.17MB SAIC Generic Sensor Format (GSF)
0467_20150823_121408_EX1504L2_MB.gsf.mb121.gz 12.21MB SAIC Generic Sensor Format (GSF)
0468_20150823_131402_EX1504L2_MB.gsf.mb121.gz 12.65MB SAIC Generic Sensor Format (GSF)
0469_20150823_141403_EX1504L2_MB.gsf.mb121.gz 11.49MB SAIC Generic Sensor Format (GSF)
0470_20150823_151407_EX1504L2_MB.gsf.mb121.gz 1.71MB SAIC Generic Sensor Format (GSF)
0471_20150823_152441_EX1504L2_MB.gsf.mb121.gz 6.74MB SAIC Generic Sensor Format (GSF)
0472_20150823_162444_EX1504L2_MB.gsf.mb121.gz 7.61MB SAIC Generic Sensor Format (GSF)
0473_20150823_172444_EX1504L2_MB.gsf.mb121.gz 7.78MB SAIC Generic Sensor Format (GSF)
0474_20150823_182443_EX1504L2_MB.gsf.mb121.gz 8.57MB SAIC Generic Sensor Format (GSF)
0475_20150823_192444_EX1504L2_MB.gsf.mb121.gz 7.45MB SAIC Generic Sensor Format (GSF)
0476_20150823_202441_EX1504L2_MB.gsf.mb121.gz 7.07MB SAIC Generic Sensor Format (GSF)
0477_20150823_212441_EX1504L2_MB.gsf.mb121.gz 7.08MB SAIC Generic Sensor Format (GSF)
0478_20150823_222441_EX1504L2_MB.gsf.mb121.gz 8.05MB SAIC Generic Sensor Format (GSF)
0479_20150823_232447_EX1504L2_MB.gsf.mb121.gz 9.67MB SAIC Generic Sensor Format (GSF)
0480_20150824_001137_EX1504L2_MB.gsf.mb121.gz 5.57MB SAIC Generic Sensor Format (GSF)
0481_20150824_003830_EX1504L2_MB.gsf.mb121.gz 12.27MB SAIC Generic Sensor Format (GSF)
0482_20150824_013826_EX1504L2_MB.gsf.mb121.gz 10.01MB SAIC Generic Sensor Format (GSF)

Products: 16

Files File Size Description
EX1504L2_MB_FNL_01_60m_WGS84.asc.gz 181.76MB ESRI Arc ASCII
EX1504L2_MB_FNL_01_60m_WGS84.kmz.gz 197.4KB Compressed Keyhole Markup Language file
EX1504L2_MB_FNL_01_60m_WGS84.sd.gz 345.48MB Fledermaus surface
EX1504L2_MB_FNL_01_60m_WGS84.tif.gz 13.82MB GeoTIFF survey image
EX1504L2_MB_FNL_01_60m_WGS84.xyz.gz 119.12MB xyz grid file provided by the originator
EX1504L2_MB_FNL_02_60m_WGS84.asc.gz 208.39MB ESRI Arc ASCII
EX1504L2_MB_FNL_02_60m_WGS84.kmz.gz 316.5KB Compressed Keyhole Markup Language file
EX1504L2_MB_FNL_02_60m_WGS84.sd.gz 399.68MB Fledermaus surface
EX1504L2_MB_FNL_02_60m_WGS84.tif.gz 6.79MB GeoTIFF survey image
EX1504L2_MB_FNL_02_60m_WGS84.xyz.gz 113.90MB xyz grid file provided by the originator
EX1504L2_MB_FNL_03_60m_WGS84.asc.gz 25.37MB ESRI Arc ASCII
EX1504L2_MB_FNL_03_60m_WGS84.kmz.gz 214.2KB Compressed Keyhole Markup Language file
EX1504L2_MB_FNL_03_60m_WGS84.sd.gz 48.11MB Fledermaus surface
EX1504L2_MB_FNL_03_60m_WGS84.tif.gz 17.08MB GeoTIFF survey image
EX1504L2_MB_FNL_03_60m_WGS84.xyz.gz 24.70MB xyz grid file provided by the originator
EX1504L2_MB_FNL_100m_WGS84.xyz.gz 96.46MB xyz grid file provided by the originator

Metadata Files: 8

Files File Size Description
EX1504L2_Multibeam.xml NGDC created ISO metadata
EX1504L2_COLLECTION_UNRESOLVED.xml 14.6KB XML metadata file
EX1504L2_Multibeam_COLLECTION_UNRESOLVED.xml 22.4KB XML metadata file
EX1504L2_Profile_COLLECTION_UNRESOLVED.xml 16.5KB XML metadata file
mb_bag_info.tar.gz 56.3KB Additional cruise information
v1_file_metadata.tar.gz 137.9KB File level metadata
wcp_bag_info.tar.gz 6.3KB Additional cruise information
v2_file_metadata.tar.gz 157.2KB File level metadata

Ancillary Files: 6

Files File Size Description
asvp.tar.gz 358.7KB Sound Speed Profiles (SSP or SVP)
ctd.tar.gz 376.6KB Conductivity, Temperature, Depth (CTD) data
rov_ctd.tar.gz 105.82MB Conductivity, Temperature, Depth (CTD) data
seirios_ctd.tar.gz 94.04MB Conductivity, Temperature, Depth (CTD) data
support.tar.gz 89.9KB Supporting data
xbt.tar.gz 0.93MB Expendable Bathythermograph (XBT) data

Water Column Sonar Data

Water Column Sonar Data Available: WCSD Map Viewer